GFSNE_con_mlcape_000.txt.gz
CAPE
2 11 30 19 31 44 57 42 25 6 1 8 16 25 7 22 8 0 0 0 0 0 0 0 0 0 0 0 0 0 0 0 0 0 0 30 892 949
0 0 2 9 42 56 53 41 25 10 1 5 0 9 17 4 42 0 14 0 0 0 0 0 0 0 0 0 0 0 0 0 0 0 0 0 0 487
0 0 24 101 55 37 44 20 30 23 17 0 2 5 13 34 29 78 38 13 6 0 0 0 0 0 0 0 0 0 0 0 0 0 0 0 0 0
0 5 92 99 94 81 85 80 72 59 55 16 0 4 16 7 30 51 50 38 27 13 0 0 0 0 0 0 0 0 0 0 0 0 0 0 0 0
6 62 94 130 73 84 89 36 71 68 67 61 52 49 18 7 27 42 65 29 21 23 7 0 0 0 0 0 0 0 0 0 0 0 0 0 0 0
100 184 236 283 125 109 79 105 128 96 84 45 77 41 36 29 39 39 30 41 23 42 25 3 0 0 0 0 0 0 0 0 0 0 0 0 0 0
219 314 366 480 192 129 69 43 79 32 60 52 58 52 18 25 60 42 34 54 31 76 29 7 0 1 0 0 0 0 0 0 0 0 0 0 0 0
404 495 431 246 330 111 27 0 0 0 23 7 17 5 3 89 73 39 48 33 32 53 13 1 13 11 6 0 0 0 0 0 0 0 0 0 0 0
595 349 235 147 179 257 162 47 0 0 0 35 99 83 103 50 54 29 43 38 2 0 7 11 20 7 2 4 0 0 0 0 0 0 0 0 0 0
520 259 136 125 138 212 214 97 89 100 124 73 34 15 29 14 0 1 2 2 3 12 21 30 21 4 4 2 0 0 0 0 0 0 0 0 0 0
180 79 16 16 141 11 22 51 79 77 24 0 0 0 0 0 0 0 0 7 7 5 0 19 13 19 1 0 0 0 0 0 0 0 0 0 0 0
66 69 46 59 0 0 0 29 14 23 13 0 0 2 0 1 0 2 5 6 15 6 0 21 16 1 1 2 3 3 0 0 0 0 0 0 0 0
42 94 133 0 0 0 0 0 0 0 0 0 0 0 0 1 8 16 2 0 0 0 0 3 7 3 3 3 1 4 7 0 0 3 0 0 0 0
282 145 13 0 0 0 0 0 0 0 0 0 0 0 0 0 0 0 0 0 0 0 1 19 20 4 3 2 4 2 3 1 11 20 15 0 0 0
236 14 0 0 0 0 0 0 0 0 0 0 0 0 0 0 0 0 0 0 0 2 13 39 8 1 1 5 4 4 4 0 0 35 36 4 0 0
0 0 0 0 0 0 0 0 0 0 0 0 0 0 0 0 0 0 0 0 1 6 6 8 4 10 4 3 6 7 8 13 2 144 123 97 14 2
0 0 0 1 1 4 5 1 0 0 0 0 0 0 0 0 0 0 0 0 5 3 0 1 1 2 2 3 2 4 2 3 5 6 2 0 5 36
0 0 0 0 0 1 2 0 0 0 0 0 0 0 0 0 0 0 0 0 2 9 0 0 20 1 0 0 0 2 3 4 3 3 2 2 1 3
0 0 0 0 0 0 0 0 0 0 0 0 0 0 0 0 0 0 0 0 0 1 0 0 13 3 3 2 1 9 3 1 4 0 38 3 26 2
0 0 0 0 0 0 0 0 0 0 0 0 0 0 0 0 0 0 0 0 0 2 0 0 1 4 2 2 3 6 4 2 3 6 4 53 152 124
0 0 0 0 0 0 0 0 0 0 0 0 0 0 0 0 0 0 0 0 0 2 0 0 0 1 2 0 1 2 2 0 0 2 5 0 65 18
0 0 0 0 0 0 0 0 0 0 0 0 0 0 0 0 0 0 0 0 0 0 0 0 0 0 1 2 2 3 4 1 1 2 2 3 1 0
0 0 0 0 0 0 0 0 0 0 0 0 0 0 0 0 0 0 0 0 0 0 0 0 0 0 1 1 0 3 2 3 2 2 2 1 0 0

GFSNE_con_mlcape_003.txt.gz
CAPE
1 7 5 6 14 26 32 32 41 20 25 35 25 56 38 41 31 2 0 2 0 0 0 0 0 0 0 0 0 0 0 0 0 0 0 0 0 0
0 0 4 2 0 13 36 42 24 13 20 21 25 41 29 17 57 52 12 21 0 0 0 0 0 0 0 0 0 0 0 0 0 0 0 0 0 0
3 0 0 36 0 12 23 29 15 18 8 0 4 21 52 53 41 63 83 76 38 9 3 0 0 0 0 0 0 0 0 0 0 0 0 0 0 0
0 0 25 61 240 299 26 62 54 32 15 12 1 0 13 70 54 44 31 27 47 27 10 0 0 0 0 0 0 0 0 0 0 0 0 0 0 0
5 36 108 222 254 192 236 121 72 95 100 37 27 22 22 27 21 80 117 65 51 10 2 6 0 0 0 0 0 0 0 0 0 0 0 0 0 0
79 140 209 285 322 296 300 339 242 198 109 78 56 57 41 19 57 36 27 34 47 34 19 0 0 5 0 0 0 0 0 0 0 0 0 0 0 0
94 177 286 380 449 332 329 168 150 127 117 120 96 49 95 71 57 75 60 43 35 23 7 11 23 14 2 0 14 5 2 0 0 0 0 0 0 0
138 263 441 661 222 145 134 135 48 13 24 33 33 22 46 58 48 42 17 21 1 0 2 1 0 5 35 91 110 8 0 0 0 0 0 0 0 0
201 341 735 349 225 253 139 76 17 44 39 28 51 119 92 121 70 35 3 4 0 0 0 0 2 5 46 124 15 0 0 0 0 0 0 0 0 0
223 510 662 547 410 108 85 62 123 331 169 101 123 218 86 26 14 0 0 0 0 1 21 14 7 1 16 39 1 0 0 0 0 0 0 0 0 0
329 540 735 277 74 27 22 24 118 165 227 87 18 0 0 0 0 0 0 1 3 10 3 6 18 0 0 0 0 0 0 0 0 0 0 0 0 0
404 808 132 43 53 21 51 97 169 175 104 43 54 0 0 0 0 0 10 28 23 11 0 0 0 0 3 0 6 1 1 2 1 0 0 0 0 0
281 233 77 6 0 0 0 0 66 0 46 0 0 0 16 9 1 17 21 0 0 0 0 0 0 1 34 15 0 0 2 1 4 3 0 0 0 0
225 161 292 0 0 0 0 0 0 0 0 0 0 15 13 0 0 0 0 0 0 0 0 0 1 17 23 3 2 1 1 2 2 2 3 1 0 0
173 0 1 0 0 0 0 0 0 0 0 2 9 0 0 0 0 0 0 0 0 0 10 21 3 0 23 15 9 3 6 0 5 2 2 4 1 3
0 3 0 0 0 0 0 0 0 0 6 0 0 0 0 0 0 0 0 0 0 0 7 10 0 0 11 26 4 2 14 4 2 3 5 159 2 0
57 34 0 1 7 9 7 2 6 9 0 0 0 0 0 0 0 0 0 0 0 0 6 2 0 2 27 4 2 0 8 1 2 3 4 44 95 4
0 1 0 10 15 12 13 16 10 1 0 0 0 0 0 0 0 0 0 0 0 1 6 17 1 2 0 0 1 10 21 6 2 3 3 4 6 5
0 0 4 6 8 5 1 0 0 0 0 0 0 0 0 0 0 0 0 0 0 0 13 2 0 2 0 0 0 14 11 6 3 3 3 4 6 3
0 0 2 3 0 0 0 0 0 0 0 0 0 0 0 0 0 0 0 0 0 0 13 0 0 0 2 0 14 11 6 3 2 2 3 3 0 4
7 0 0 0 0 0 0 0 0 0 0 0 0 0 0 0 0 0 0 0 0 0 3 0 0 0 0 8 1 1 0 1 0 2 4 5 4 15
1 0 0 0 0 0 0 0 0 0 0 0 0 0 0 0 0 0 0 0 0 0 0 3 0 0 0 2 2 3 0 0 0 0 1 5 3 2
0 0 0 0 0 0 0 0 0 0 0 0 0 0 0 0 0 0 0 0 0 0 0 0 0 0 0 0 0 3 1 0 1 0 0 0 3 0

GFSNE_con_mlcape_006.txt.gz
CAPE
45 19 0 0 24 37 23 24 17 7 8 21 14 40 17 23 8 0 0 0 0 0 0 0 0 0 0 0 0 0 0 0 0 0 0 0 0 0
2 0 22 23 7 16 14 20 31 20 0 7 23 45 53 22 23 48 38 20 3 0 0 0 0 0 0 0 0 0 0 0 0 0 0 0 0 0
0 0 2 46 4 7 98 36 15 3 0 5 0 1 3 11 13 25 46 41 73 43 29 6 0 0 0 0 0 0 0 0 0 0 0 0 0 0
203 106 30 51 61 42 106 89 64 62 89 4 0 0 0 14 15 30 25 19 15 24 13 11 2 0 0 0 0 0 0 0 0 0 0 0 0 0
11 41 57 110 140 173 238 189 128 166 102 48 51 58 5 0 0 1 0 40 101 36 10 0 6 2 0 0 0 0 0 0 0 0 0 0 0 0
114 73 117 199 173 197 148 161 202 182 94 41 77 40 61 20 46 34 21 27 50 34 18 13 3 0 0 0 0 0 0 0 0 0 0 0 0 0
271 98 91 266 384 332 253 189 244 106 24 5 28 1 6 45 40 44 35 32 22 20 32 12 0 0 0 0 0 0 0 0 0 0 0 0 0 0
300 156 199 294 229 89 84 91 89 33 44 17 14 1 11 40 40 20 57 20 0 0 5 0 0 0 0 0 0 0 0 3 10 0 0 0 0 0
327 109 75 219 322 248 193 119 76 47 22 0 0 10 38 52 50 33 36 21 0 0 0 0 0 4 0 3 3 0 3 6 0 0 0 0 0 0
186 39 46 142 552 602 334 186 67 84 97 74 55 64 121 167 46 4 0 0 0 0 1 1 0 0 0 0 0 0 0 0 0 0 0 0 0 0
5 11 179 505 726 64 96 38 25 75 201 153 94 93 111 0 0 0 0 0 0 0 0 0 2 0 0 0 0 0 0 0 0 0 0 0 0 0
5 91 165 184 430 76 42 68 175 129 225 199 57 4 2 0 0 4 3 1 7 8 0 0 0 0 0 0 0 0 0 0 0 0 0 0 0 0
27 69 298 269 47 7 4 24 30 0 4 0 0 0 0 10 55 69 35 8 0 0 0 0 0 0 0 0 3 0 0 0 0 0 1 0 0 0
89 295 148 2 0 0 0 0 0 0 0 0 0 0 8 8 0 0 0 0 0 0 0 0 0 0 20 0 0 0 0 1 2 19 4 0 0 0
112 50 1 0 0 0 0 0 0 0 0 0 0 9 0 0 0 0 0 0 0 0 0 1 18 4 9 2 11 8 2 0 1 15 4 3 3 5
0 0 0 0 0 0 0 0 0 0 0 0 0 0 0 0 0 0 0 0 0 0 0 20 11 21 6 16 21 0 0 17 9 12 3 2 3 3
21 16 0 0 0 0 1 8 6 8 12 16 0 0 0 0 0 0 0 0 0 0 0 17 28 17 18 6 0 0 4 14 7 5 2 2 2 3
55 185 86 33 73 33 22 19 21 21 14 0 0 0 0 0 0 0 0 0 0 0 0 14 12 0 0 0 0 0 9 10 6 2 2 5 3 1
34 9 0 11 5 2 0 0 0 0 0 0 0 0 0 0 0 0 0 0 0 0 0 16 4 2 1 0 0 17 23 4 8 3 4 4 3 2
0 0 0 2 0 0 0 0 0 0 0 0 0 0 0 0 0 0 0 0 0 0 0 29 19 2 0 0 4 0 0 5 7 4 4 2 2 0
2 9 2 0 0 0 0 0 0 0 0 0 0 0 0 0 0 0 0 0 0 0 0 0 1 0 0 0 0 0 0 0 4 8 7 2 3 1
9 12 0 0 0 0 0 0 0 0 0 0 0 0 0 0 0 0 0 0 0 0 0 0 0 0 0 0 0 1 0 0 0 4 5 2 4 3
2 0 0 0 0 0 0 0 0 0 0 0 0 0 0 0 0 0 0 0 0 0 0 0 0 0 0 0 0 0 0 1 3 1 1 0 1 0

GFSNE_con_mlcape_009.txt.gz
CAPE
0 0 0 0 0 0 11 5 0 0 0 0 0 0 12 4 0 0 0 0 0 0 0 0 0 0 0 0 0 0 0 0 0 0 0 0 0 0
0 0 0 0 0 19 15 7 1 5 2 0 5 0 9 19 17 26 7 0 0 0 0 0 0 0 0 0 0 0 0 0 0 0 0 0 0 0
0 0 0 2 10 9 34 38 9 18 8 4 0 5 5 0 0 0 0 7 16 4 0 0 0 0 0 0 0 0 0 0 0 0 0 0 0 0
0 2 0 0 38 32 55 74 128 120 25 38 39 27 34 35 4 1 0 7 7 0 0 0 0 0 0 0 0 0 0 0 0 0 0 0 0 0
19 25 21 23 5 78 115 157 165 120 89 48 2 31 13 10 19 1 0 3 13 60 49 21 14 0 0 0 1 0 0 0 0 0 0 0 0 0
77 151 143 24 30 147 133 114 128 107 74 39 43 13 13 25 8 25 0 0 0 0 6 4 1 0 0 0 0 0 0 0 0 0 0 0 0 0
132 163 160 152 210 186 152 173 123 1 30 57 47 6 0 0 0 0 0 0 0 0 0 0 0 0 0 0 0 0 0 0 0 0 0 0 0 0
140 193 127 52 194 202 310 168 136 122 109 22 16 15 0 1 0 10 0 0 0 0 0 0 0 0 0 0 0 0 0 0 0 0 0 0 0 0
215 240 337 137 150 253 188 97 103 120 105 61 8 0 0 0 21 4 0 0 0 0 0 0 0 0 0 0 0 0 0 0 0 0 0 0 0 0
393 345 329 150 123 135 140 180 184 130 83 46 32 23 30 30 53 50 20 0 0 0 0 0 0 0 0 0 0 0 0 0 0 0 0 0 0 0
156 164 169 68 61 91 67 30 29 60 44 160 226 174 58 74 131 10 0 0 0 0 0 0 0 0 0 0 0 0 0 0 0 0 0 0 0 0
4 48 25 4 116 86 38 37 37 23 40 13 0 1 0 0 0 0 4 6 5 0 0 0 0 0 0 0 0 0 0 0 0 0 0 0 0 0
0 1 22 4 17 47 49 3 6 0 0 0 0 0 0 0 0 1 10 1 0 0 0 0 0 0 0 0 0 0 0 0 0 0 0 0 0 0
43 142 13 108 51 6 0 0 0 0 0 0 0 0 0 0 0 0 0 0 0 0 0 0 0 0 0 0 8 3 0 0 0 0 0 1 8 9
53 44 0 0 0 0 0 0 0 0 0 0 0 0 0 0 0 0 0 0 0 0 0 0 0 0 2 25 11 0 0 0 0 0 0 14 16 10
0 0 0 0 0 0 0 0 0 0 0 0 0 0 0 0 0 0 0 0 0 0 0 0 1 34 21 7 5 0 0 0 0 0 9 13 13 10
0 0 0 0 0 0 0 0 0 0 0 0 0 0 0 0 0 0 0 0 0 0 0 0 0 14 21 9 0 0 0 0 0 4 5 6 7 10
0 0 0 0 0 0 2 5 8 10 13 0 0 0 0 0 0 0 0 0 0 0 0 0 0 0 0 0 0 0 0 0 0 10 6 10 5 5
29 53 42 0 0 0 0 0 0 0 0 0 0 0 0 0 0 0 0 0 0 0 0 0 0 3 9 0 0 1 1 0 5 6 7 12 7 1
0 0 0 0 0 0 0 0 0 0 0 0 0 0 0 0 0 0 0 0 0 0 0 0 2 0 8 0 0 0 1 0 4 6 6 8 2 1
0 0 0 0 0 0 0 0 0 0 0 0 0 0 0 0 0 0 0 0 0 0 0 0 0 0 0 0 0 0 0 0 0 6 10 4 4 2
0 0 0 0 0 0 0 0 0 0 0 0 0 0 0 0 0 0 0 0 0 0 0 0 0 0 6 0 0 0 0 0 0 3 11 5 3 3
0 0 0 0 0 0 0 0 0 0 0 0 0 0 0 0 0 0 0 0 0 0 0 0 0 0 0 0 0 0 0 0 1 2 2 0 0 1

GFSNE_con_mlcape_012.txt.gz
CAPE
0 0 0 0 0 0 0 0 0 0 0 0 0 0 0 0 0 0 0 0 0 0 0 0 0 0 0 0 0 0 0 0 0 0 0 0 0 0
0 0 0 0 0 0 0 4 0 0 0 0 0 0 0 0 0 0 0 0 0 0 0 0 0 0 0 2 2 0 0 0 0 0 0 0 0 0
22 4 0 0 0 0 0 0 14 3 0 2 3 0 1 0 0 0 0 0 0 0 2 0 0 0 0 8 3 0 0 0 0 0 0 0 0 0
1 7 0 1 6 12 1 8 45 27 1 6 18 22 23 15 17 9 2 6 0 0 0 0 0 6 0 0 0 0 0 0 0 0 0 0 0 0
0 0 0 2 4 3 17 6 67 97 70 50 60 41 29 20 2 1 0 0 0 0 0 0 0 0 1 0 0 0 0 0 0 0 0 0 0 0
0 0 0 1 12 4 13 77 121 120 113 104 48 33 27 8 2 0 0 0 0 0 0 0 0 0 0 0 0 0 0 0 0 0 0 0 0 0
59 23 49 51 132 76 29 86 103 95 117 93 8 13 3 0 0 0 0 0 0 0 0 0 0 0 0 0 0 0 0 0 0 0 0 0 0 0
38 0 57 148 162 105 56 89 92 122 60 24 22 4 0 0 0 0 0 0 0 0 0 0 0 0 0 0 0 0 0 0 0 0 0 0 0 0
96 0 14 120 135 106 50 27 65 90 102 29 17 0 0 0 0 0 0 0 0 0 0 0 0 0 0 0 0 0 0 0 0 0 0 0 0 0
92 4 66 203 218 64 39 35 60 36 46 43 33 15 5 17 25 22 4 0 0 0 0 0 0 0 0 0 0 0 0 0 0 0 0 0 0 0
67 119 224 297 150 27 57 52 2 8 58 45 45 54 55 76 13 0 1 0 0 0 0 0 0 0 0 0 0 0 0 0 0 0 0 0 0 0
137 237 244 179 108 21 28 2 8 32 32 0 0 0 0 0 0 0 0 0 0 0 0 0 0 0 0 0 0 0 0 0 0 0 0 0 0 0
14 24 5 8 3 5 39 35 57 18 3 0 0 0 0 0 0 0 0 0 0 0 0 0 0 0 0 0 0 0 0 0 0 0 0 0 0 0
6 0 0 5 0 0 0 0 0 0 0 0 0 0 0 0 0 0 0 0 0 0 0 0 0 0 0 0 0 0 0 0 0 0 0 0 0 0
0 0 0 0 0 0 0 0 0 0 0 0 0 0 0 0 0 0 0 0 0 0 0 0 0 0 0 0 0 0 0 0 0 0 0 0 0 0
0 0 0 0 0 0 0 0 0 0 0 0 0 0 0 0 0 0 0 0 0 0 0 0 0 0 0 0 0 0 0 0 0 0 0 1 1 1
0 0 0 0 0 0 0 0 0 0 0 0 0 0 0 0 0 0 0 0 0 0 0 0 0 0 0 0 0 0 0 0 0 0 2 4 2 2
0 0 0 0 0 0 0 0 0 0 0 0 0 0 0 0 0 0 0 0 0 0 0 0 0 0 0 0 0 0 0 0 0 1 4 4 3 7
0 0 0 0 0 0 0 0 0 0 0 0 0 0 0 0 0 0 0 0 0 0 0 0 0 0 0 0 0 0 0 0 0 1 1 6 10 4
0 0 0 0 0 0 0 0 0 0 0 0 0 0 0 0 0 0 0 0 0 0 0 0 0 0 0 0 0 0 0 0 0 1 3 3 9 8
0 0 0 0 0 0 0 0 0 0 0 0 0 0 0 0 0 0 0 0 0 0 0 0 0 0 0 0 0 0 0 0 0 1 3 8 6 6
0 0 0 0 0 0 0 0 0 0 0 0 0 0 0 0 0 0 0 0 0 0 0 0 0 0 0 0 0 0 0 0 0 0 4 3 5 6
0 0 0 0 0 0 0 0 0 0 0 0 0 0 0 0 0 0 0 0 0 0 0 0 0 0 0 0 0 0 0 0 0 0 0 3 3 6

GFSNE_con_mlcape_015.txt.gz
CAPE
0 0 0 0 0 0 0 0 0 0 0 0 0 0 0 0 0 0 0 0 0 0 0 0 0 0 0 0 0 0 0 0 0 0 0 0 0 0
0 0 0 0 0 0 0 0 0 0 0 0 0 0 0 0 0 0 0 0 0 0 0 0 0 0 13 16 5 8 12 5 0 0 0 0 0 0
0 0 0 0 0 0 0 0 0 0 0 4 0 0 0 0 0 0 0 0 0 0 0 0 0 0 9 22 27 18 3 3 0 6 6 0 0 0
0 0 0 0 0 0 0 0 0 0 0 0 4 13 10 17 0 0 0 0 0 0 0 0 0 0 0 0 0 0 0 0 0 0 0 0 0 0
0 0 0 0 0 0 0 0 0 0 1 0 5 2 20 14 16 0 0 0 0 0 0 0 0 0 0 0 0 0 0 0 0 0 0 0 0 0
0 0 0 0 0 0 0 0 0 0 12 30 45 29 11 17 7 0 0 0 0 0 0 0 0 0 0 0 0 0 0 0 0 0 0 0 0 0
19 9 0 0 0 3 5 11 2 0 46 58 69 39 8 6 3 0 0 0 0 0 0 0 0 0 0 0 0 0 0 0 0 0 0 0 0 0
146 53 8 0 10 41 24 52 6 12 37 32 23 18 7 0 0 0 0 0 0 0 0 0 0 0 0 0 0 0 0 0 0 0 0 0 0 0
327 173 17 9 4 61 73 53 27 9 10 1 5 8 1 1 0 0 0 0 0 0 0 0 0 0 0 0 0 0 0 0 0 0 0 0 0 0
302 297 69 42 0 20 67 42 16 15 18 1 2 2 16 2 0 0 0 0 0 0 0 0 0 0 0 0 0 0 0 0 0 0 0 0 0 0
322 162 124 60 2 47 34 10 0 29 19 14 6 8 9 1 0 0 0 0 0 0 0 0 0 0 0 0 0 0 0 0 0 0 0 0 0 0
217 82 79 89 48 77 65 4 8 1 5 4 0 0 0 0 0 0 0 0 0 0 0 0 0 0 0 0 0 0 0 0 0 0 0 0 0 0
91 8 38 51 36 3 3 4 3 0 0 0 0 0 0 0 0 0 0 0 0 0 0 0 0 0 0 0 0 0 0 0 0 0 0 0 0 0
0 2 11 1 0 0 0 0 0 0 0 0 0 0 0 0 0 0 0 0 0 0 0 0 0 0 0 0 0 0 0 0 0 0 0 0 0 0
0 0 0 0 0 0 0 0 0 0 0 0 0 0 0 0 0 0 0 0 0 0 0 0 0 0 0 0 0 0 0 0 0 0 0 0 0 0
0 0 0 0 0 0 0 0 0 0 0 0 0 0 0 0 0 0 0 0 0 0 0 0 0 0 0 0 0 0 0 0 0 0 0 0 0 0
0 0 0 0 0 0 0 0 0 0 0 0 0 0 0 0 0 0 0 0 0 0 0 0 0 0 0 0 0 0 0 0 0 0 0 0 0 0
0 0 0 0 0 0 0 0 0 0 0 0 0 0 0 0 0 0 0 0 0 0 0 0 0 0 0 0 0 0 0 0 0 0 0 0 0 0
8 0 0 0 0 0 0 0 0 0 0 0 0 0 0 0 0 0 0 0 0 0 0 0 0 0 0 0 0 0 0 0 0 0 0 0 1 1
0 0 0 0 0 0 0 0 0 0 0 0 0 0 0 0 0 0 0 0 0 0 0 0 0 0 0 0 0 0 0 0 0 0 0 0 0 3
0 0 0 0 0 0 0 0 0 0 0 0 0 0 0 0 0 0 0 0 0 0 0 0 0 0 0 0 0 0 0 0 0 0 0 3 3 4
0 0 0 0 0 0 0 0 0 0 0 0 0 0 0 0 0 0 0 0 0 0 0 0 0 0 0 0 0 0 0 0 0 0 0 1 3 5
0 0 0 0 0 0 0 0 0 0 0 0 0 0 0 0 0 0 0 0 0 0 0 0 0 0 0 0 0 0 0 0 0 0 0 0 3 4

GFSNE_con_mlcape_018.txt.gz
CAPE
0 0 0 0 0 0 0 0 0 0 0 0 0 0 0 0 0 0 0 0 0 0 0 0 0 0 0 0 0 0 0 0 0 0 0 0 0 0
0 0 0 0 0 0 0 0 0 0 0 0 0 0 0 0 0 0 0 0 0 0 0 0 0 0 0 0 13 19 16 7 5 0 0 0 0 0
0 0 0 0 0 0 0 0 0 0 0 0 0 0 0 0 0 0 0 0 0 0 0 0 0 0 0 2 4 5 12 4 1 0 0 0 0 0
0 0 0 0 0 0 0 0 0 0 0 0 0 0 7 0 6 1 0 0 0 0 0 0 0 0 0 0 0 0 0 0 0 0 0 0 0 0
1 0 0 0 0 0 0 0 0 0 0 0 0 0 0 0 0 0 0 0 0 0 0 0 0 0 0 0 0 0 0 0 0 0 0 0 0 0
83 0 0 0 0 0 0 0 0 0 0 0 0 7 19 10 1 0 0 0 0 0 0 0 0 0 0 0 0 0 0 0 0 0 0 0 0 0
187 65 0 0 0 0 0 0 0 3 0 0 1 20 7 11 2 2 0 0 0 0 0 0 0 0 0 0 0 0 0 0 0 0 0 0 0 0
341 124 70 15 0 0 0 0 4 15 13 0 0 4 7 1 0 1 0 0 0 0 0 2 0 0 0 0 0 0 0 0 0 0 0 0 0 0
419 381 362 141 59 29 0 0 0 25 23 8 4 1 5 4 0 0 0 0 0 3 0 5 0 0 0 0 0 0 0 0 0 0 0 0 0 0
522 564 566 481 196 101 34 0 9 31 24 21 22 17 0 3 1 0 0 0 0 0 0 0 0 0 0 0 0 0 0 0 0 0 0 0 0 0
600 405 366 466 314 181 50 0 13 15 6 0 0 1 0 0 0 0 0 0 0 0 0 0 0 0 0 0 0 0 0 0 0 0 0 0 0 0
248 265 234 520 235 70 5 15 52 15 0 0 0 0 0 0 0 0 0 0 0 0 0 0 0 0 0 0 0 0 0 0 0 0 0 0 0 0
297 636 401 188 82 7 18 90 52 14 0 0 0 0 0 0 0 0 0 0 0 0 0 0 0 0 0 0 0 0 0 0 0 0 0 0 0 0
699 609 281 26 18 2 0 3 0 0 0 0 0 0 0 0 0 0 0 0 0 0 0 0 0 0 0 0 0 0 0 0 0 0 0 0 0 0
587 186 3 0 0 0 0 0 0 0 0 0 0 0 0 0 0 0 0 0 0 0 0 0 0 0 0 0 0 0 0 0 0 0 0 0 0 0
0 0 0 0 0 0 0 0 0 0 0 0 0 0 0 0 0 0 0 0 0 0 0 0 0 0 0 0 0 0 0 0 0 0 0 0 0 0
0 0 0 0 0 0 0 0 0 0 0 0 0 0 0 0 0 0 0 0 0 0 0 0 0 0 0 0 0 0 0 0 0 0 0 0 0 0
0 0 0 0 0 0 0 0 0 0 0 0 0 0 0 0 0 0 0 0 0 0 0 0 0 0 0 0 0 0 0 0 0 0 0 0 0 0
2 0 0 0 0 0 0 0 0 0 0 0 0 0 0 0 0 0 0 0 0 0 0 0 0 0 0 0 0 0 0 0 0 0 0 0 0 0
0 7 0 0 0 0 0 0 0 0 0 0 0 0 0 0 0 0 0 0 0 0 0 0 0 0 0 0 0 0 0 0 0 0 0 0 0 0
9 0 0 0 0 0 0 0 0 0 0 0 0 0 0 0 0 0 0 0 0 0 0 0 0 0 0 0 0 0 0 0 0 0 0 0 0 1
0 0 0 0 0 0 0 0 0 0 0 0 0 0 0 0 0 0 0 0 0 0 0 0 0 0 0 0 0 0 0 0 0 0 0 0 3 4
0 0 0 0 0 0 0 0 0 0 0 0 0 0 0 0 0 0 0 0 0 0 0 0 0 0 0 0 0 0 0 0 0 0 0 0 0 0

GFSNE_con_mlcape_021.txt.gz
CAPE
12 5 4 40 0 0 0 0 0 0 0 0 0 0 0 24 17 1 9 0 0 0 0 0 0 0 0 0 0 0 0 0 0 0 0 0 0 0
39 40 0 11 13 1 0 0 0 0 0 0 0 3 18 23 23 36 49 0 0 0 0 0 0 0 0 0 0 0 3 3 0 0 0 0 0 0
135 41 16 9 0 0 0 0 0 0 0 0 0 12 8 10 1 27 0 52 35 0 0 0 0 0 0 0 0 0 3 4 0 0 0 0 0 0
333 86 0 0 0 0 0 0 0 0 0 7 1 8 10 71 77 74 68 0 23 3 0 0 0 0 0 0 0 0 0 0 0 0 0 0 0 0
499 164 56 0 0 0 0 0 0 0 0 0 0 20 22 19 47 75 77 37 0 0 0 0 0 0 0 0 0 0 0 0 0 0 0 0 0 0
733 402 147 10 0 0 2 2 2 0 0 0 0 0 27 72 51 20 17 24 0 0 0 0 0 0 0 0 0 0 0 0 0 0 0 0 0 0
887 558 240 165 5 0 12 17 0 0 0 0 2 0 0 49 70 37 29 35 16 26 3 32 42 57 13 0 0 0 0 0 0 0 0 0 0 0
1161 810 460 146 32 0 0 3 8 0 0 7 12 4 69 94 66 37 58 66 63 69 103 18 255 181 184 170 0 0 0 0 0 0 0 0 0 0
1309 1150 748 432 197 97 0 0 0 0 1 237 147 52 32 111 94 26 55 53 83 143 119 58 149 156 50 0 0 0 0 0 0 0 0 0 0 0
1360 1269 1035 769 559 376 346 85 18 40 0 0 170 237 102 150 8 57 105 158 90 59 114 3 0 5 0 0 0 0 0 0 0 0 0 0 0 0
1486 1259 1115 1023 925 355 400 412 364 326 89 1 16 0 0 0 19 38 6 0 1 5 5 0 0 0 0 0 0 0 0 0 0 0 0 0 0 0
1293 1100 701 1006 542 221 413 566 446 204 61 0 0 0 0 0 0 0 0 0 0 0 2 0 0 0 0 0 0 0 0 0 0 0 0 0 0 0
1071 939 976 302 88 177 207 712 289 333 5 0 0 0 0 0 0 0 0 0 0 0 0 0 0 0 0 0 0 0 0 0 0 0 0 0 0 0
1041 714 634 165 174 80 42 295 41 11 1 0 0 0 0 0 0 0 0 0 0 0 0 0 0 0 0 0 0 0 0 0 0 0 0 0 0 0
742 561 365 209 47 2 2 0 0 3 0 0 0 0 0 0 0 0 0 0 0 0 0 0 0 0 0 0 0 0 0 0 0 0 0 3 0 0
129 11 40 5 0 11 0 0 0 0 0 0 0 0 0 0 0 0 0 0 0 0 0 0 0 0 0 0 0 0 0 0 0 0 15 2 0 0
10 1 0 13 0 1 0 0 0 0 0 0 0 0 0 0 0 0 0 0 0 0 0 0 0 0 0 0 0 0 0 0 0 2 2 0 0 0
0 0 10 1 0 0 0 0 0 0 0 0 0 0 0 0 0 0 0 0 0 0 0 0 0 0 0 0 0 0 0 0 0 0 0 0 0 0
0 0 0 0 0 0 0 0 0 0 0 0 0 0 0 0 0 0 0 0 0 0 0 0 0 0 0 0 0 0 0 0 0 0 0 0 0 0
0 0 0 0 0 0 0 0 0 0 0 0 0 0 0 0 0 0 0 0 0 0 0 0 0 0 0 0 0 0 0 0 0 0 0 0 0 0
2 2 2 4 10 0 0 0 0 0 0 0 0 0 0 0 0 0 0 0 0 0 0 0 0 0 0 0 0 0 0 0 0 0 0 0 0 0
62 54 23 33 10 0 0 0 0 0 0 0 0 0 0 0 0 0 0 0 0 0 0 0 0 0 0 0 0 0 0 0 0 0 0 0 0 0
46 88 13 19 0 0 0 0 0 0 0 0 0 0 0 0 0 0 0 0 0 0 0 0 0 0 0 0 0 0 0 0 0 0 0 0 0 0

GFSNE_con_mlcape_024.txt.gz
CAPE
614 187 27 1 38 1 0 0 0 0 2 9 0 0 0 0 0 0 0 9 0 0 0 0 0 0 0 0 0 0 0 0 0 0 0 0 0 0
564 183 125 0 17 2 0 0 0 0 0 0 0 1 0 2 6 0 38 22 0 0 0 0 0 0 0 0 0 0 0 0 0 0 0 0 0 0
716 378 290 43 0 0 0 0 0 0 0 0 0 3 42 97 8 0 38 60 67 1 0 0 0 0 0 0 0 0 0 0 0 0 0 0 0 0
1287 747 510 146 93 16 1 0 0 0 0 0 0 0 41 72 237 238 158 65 78 16 0 0 0 0 0 0 0 0 0 0 0 0 0 0 0 0
1606 1261 876 291 143 10 10 0 0 0 0 0 0 8 11 43 168 311 209 194 101 13 0 0 0 0 0 0 0 0 0 0 0 0 0 0 0 0
1974 1653 1201 665 268 192 42 30 2 1 0 0 0 0 11 32 10 10 125 311 110 57 19 0 0 0 0 0 0 0 0 0 0 0 0 0 0 0
2099 2018 1628 1068 504 355 116 110 77 62 0 6 0 0 0 21 17 15 20 21 67 117 119 75 52 95 90 0 6 6 0 0 0 0 0 0 0 0
2213 2158 1870 1094 574 218 76 49 225 198 59 4 4 11 2 16 35 22 26 13 29 120 115 150 124 150 280 261 2 0 0 0 0 0 0 0 0 0
2275 2315 2136 1646 839 745 86 6 23 76 118 235 239 166 154 312 298 159 39 75 53 111 137 151 109 49 51 45 0 0 0 0 0 0 0 0 0 0
2129 2349 2373 2068 1514 1073 980 267 91 88 54 18 136 396 499 458 461 263 185 53 148 134 92 72 10 0 0 0 0 0 0 0 0 0 0 0 0 0
2356 2475 2457 2414 2119 952 1174 1150 637 397 127 64 41 87 148 73 123 88 25 17 21 23 46 4 0 0 0 0 0 0 0 0 0 0 0 0 0 0
2275 2512 2040 2308 2002 1063 994 1405 1389 927 511 390 176 21 0 0 0 6 20 28 5 0 5 0 0 0 0 0 0 0 0 0 0 0 0 0 0 0
1538 1991 2351 1531 1086 875 696 1248 1186 946 518 382 245 136 11 0 0 0 0 0 0 0 0 0 0 0 0 0 0 0 0 0 0 0 0 0 0 0
1784 1780 1980 1123 608 420 283 555 506 438 567 135 134 44 6 0 0 0 0 0 0 0 0 0 0 0 0 0 0 0 0 0 0 0 0 0 0 0
1921 1774 1448 785 304 135 57 165 283 226 188 121 156 57 22 2 0 0 0 0 0 0 0 0 0 0 0 0 0 0 0 0 0 0 0 0 2 7
1228 829 429 85 10 4 0 0 183 223 240 157 123 61 5 0 0 0 0 0 0 0 0 0 0 0 0 0 0 0 0 0 0 0 0 0 1 0
312 176 93 30 14 5 1 3 50 77 97 103 81 24 0 0 0 0 0 0 0 0 0 0 0 0 0 0 0 0 0 0 0 0 0 0 0 0
185 117 35 85 11 2 15 18 11 38 73 40 28 0 0 0 0 0 0 0 0 0 0 0 0 0 0 0 0 0 0 0 0 0 0 0 0 0
308 119 82 4 0 0 0 0 2 45 33 21 0 0 0 0 0 0 0 0 0 0 0 0 0 0 0 0 0 0 0 0 0 0 0 0 0 0
160 39 9 0 0 0 0 3 1 14 10 2 1 0 0 0 1 0 0 0 0 0 0 0 0 0 0 0 0 0 0 0 0 0 0 0 0 0
20 0 0 0 0 0 3 1 5 41 7 5 0 0 0 0 0 0 0 0 0 0 0 0 0 0 0 0 0 0 0 0 0 0 0 0 0 0
4 18 7 1 13 31 4 3 1 3 2 0 0 0 0 0 0 0 0 0 0 0 0 0 0 0 0 0 0 0 0 0 0 0 0 0 0 0
15 50 68 44 53 38 9 0 0 2 0 0 0 0 0 0 0 0 0 0 0 0 0 0 0 0 0 0 0 0 0 0 0 0 0 0 0 0

GFSNE_con_mlcape_027.txt.gz
CAPE
1306 796 67 0 23 27 0 0 0 3 20 5 0 1 1 6 0 0 0 0 0 0 0 0 0 0 0 0 0 0 0 0 0 0 0 3 2 11
1252 952 427 12 0 19 0 0 0 0 0 12 3 5 0 3 1 0 1 0 0 0 0 0 0 0 0 0 0 0 0 3 4 6 4 6 14 22
1640 1145 788 321 13 5 0 0 0 0 0 0 3 5 0 1 1 0 0 12 0 0 0 0 0 0 0 0 0 0 0 0 0 0 0 0 0 0
1977 1425 875 678 301 71 32 49 0 0 0 0 7 44 45 48 115 234 111 32 55 17 0 0 0 0 0 0 0 0 0 0 0 0 0 0 0 0
2194 2041 1414 1045 765 69 19 43 25 31 48 0 0 0 4 134 267 404 428 246 150 26 0 0 0 0 0 0 0 0 0 0 0 0 0 0 0 0
2451 2385 2083 1550 1146 764 478 107 157 58 41 22 0 0 3 49 75 30 95 180 244 78 21 17 1 0 0 0 0 0 0 0 0 0 0 0 0 0
2544 2693 2516 2060 1453 1111 578 441 117 125 0 18 34 9 0 17 121 99 37 43 179 195 62 61 61 7 15 0 7 0 0 0 0 0 0 0 0 0
2861 2855 2677 2115 1448 962 646 571 505 391 172 2 0 29 106 42 50 49 84 41 16 51 67 99 162 129 85 46 15 0 0 0 0 0 0 0 0 0
3023 2882 2843 2260 1894 1355 658 424 238 368 399 405 81 125 303 250 261 332 197 202 30 137 64 52 68 13 1 0 0 0 0 0 0 0 0 0 0 0
2901 2984 2976 2405 2304 1931 1514 792 481 296 306 153 423 588 412 528 703 490 383 285 122 81 89 42 5 0 0 0 0 0 0 0 0 0 0 0 0 0
2874 3005 2902 2908 2854 1720 1831 1698 997 567 353 119 23 216 207 312 417 373 90 76 3 22 77 29 2 0 0 0 0 0 0 0 0 0 0 0 0 0
2601 2964 2544 2800 2754 1783 1863 1943 1768 1208 719 261 35 4 35 53 78 278 87 67 38 23 20 0 0 0 0 0 0 0 0 0 0 0 0 0 0 0
2506 2648 2955 2204 2470 1869 1747 2144 1910 1687 983 698 219 192 154 279 146 19 19 10 7 2 0 0 0 0 0 0 0 0 0 0 0 0 0 0 0 0
2416 2467 2647 2317 1850 1870 1495 1933 1794 1651 1387 654 364 308 186 146 128 32 2 3 0 0 0 0 0 0 0 0 0 0 0 0 0 0 0 0 0 0
2469 2597 2093 1736 1509 1347 1204 959 1063 1270 1050 367 281 205 137 121 97 1 0 0 0 0 0 0 0 0 0 0 0 0 0 0 0 0 0 0 0 0
2187 2190 1310 1042 1269 1581 638 493 627 745 646 279 164 116 108 75 10 0 0 0 0 0 0 0 0 0 0 0 0 0 0 0 0 0 0 0 0 0
1760 1442 711 390 727 444 475 327 217 297 279 271 119 106 66 4 0 0 0 0 0 0 0 0 0 0 0 0 0 0 0 0 0 0 0 0 0 0
1274 1099 697 503 394 290 243 119 67 145 87 97 55 26 36 0 0 0 0 0 0 0 0 0 0 0 0 0 0 0 0 0 0 0 0 0 0 0
1599 925 562 335 312 176 102 84 37 4 47 2 21 45 21 0 0 0 0 0 0 0 0 0 0 0 0 0 0 0 0 0 0 0 0 0 0 0
1293 1029 430 191 150 61 42 82 51 3 1 21 56 46 2 0 0 0 0 1 0 0 0 0 0 0 0 0 0 0 0 0 0 0 0 0 0 0
363 724 144 78 15 2 38 29 2 3 3 100 37 11 7 3 0 0 0 0 0 0 0 0 0 0 0 0 0 0 0 0 0 0 0 0 0 0
0 23 50 20 2 3 14 33 17 63 16 54 2 0 1 0 0 2 0 0 0 0 0 0 0 0 0 0 0 0 0 0 0 0 0 0 0 0
5 0 0 1 2 10 11 54 54 24 5 18 5 0 0 0 0 0 0 0 0 0 0 0 0 0 0 0 0 0 0 0 0 0 0 0 0 0

GFSNE_con_mlcape_033.txt.gz
CAPE
606 586 58 1 22 40 6 0 0 0 0 0 0 0 0 0 0 0 0 0 0 0 0 0 0 0 0 0 0 0 0 0 0 0 0 0 0 0
1517 880 121 64 37 60 52 4 0 0 0 16 0 0 0 0 0 0 0 0 0 0 0 0 0 0 0 0 0 0 0 0 0 0 0 0 0 0
1855 1539 1112 282 22 24 82 49 0 0 0 0 0 0 0 0 0 0 0 0 0 0 0 0 0 0 0 0 0 0 0 0 0 0 0 0 0 0
1981 1742 1501 1175 313 0 141 27 17 0 0 0 38 45 0 0 0 0 0 0 0 0 0 0 0 0 0 0 0 0 0 0 0 0 0 0 0 0
1934 1947 1731 1433 931 591 31 310 70 5 7 0 10 51 2 1 0 0 0 0 1 39 80 0 0 0 0 0 0 0 0 0 0 0 0 0 0 0
2112 2376 2017 1715 1382 1047 676 92 329 179 122 96 5 64 160 91 14 27 44 100 68 178 95 17 0 0 0 0 0 0 0 0 0 0 0 0 0 0
1755 1984 2434 2218 1772 1440 1130 607 93 380 247 164 124 47 4 141 300 155 48 64 139 138 108 26 1 0 0 0 0 0 0 0 0 0 0 0 0 0
2078 1945 2178 2336 2254 1797 1442 1068 551 7 328 275 129 111 37 0 60 203 184 130 133 88 69 46 0 0 0 0 0 0 0 0 0 0 0 0 0 0
2402 2364 2232 2428 2471 2328 1675 1379 1104 798 131 129 180 64 39 55 68 146 147 116 61 7 11 3 31 10 25 19 0 0 0 0 0 0 0 0 0 0
2721 2672 2547 2494 2515 2513 2356 1786 1428 1113 939 286 105 144 72 42 40 87 87 77 46 20 5 18 4 4 0 0 0 0 0 0 0 0 0 0 0 0
2748 2763 2865 2780 2727 2411 2513 2295 1834 1550 849 684 384 76 27 298 522 418 184 84 39 38 1 22 46 11 0 0 0 0 0 0 0 0 0 0 0 0
2809 2716 2639 2823 2859 2523 2539 2469 2267 1876 1359 930 454 243 242 193 249 251 154 78 43 43 76 11 21 41 0 0 0 0 0 0 0 0 0 0 0 0
2916 2749 2614 2402 2462 2586 2423 2673 2429 2125 1478 1156 901 596 191 322 204 138 90 103 63 31 18 47 12 15 0 0 0 0 0 0 0 0 0 0 0 0
3291 3175 2966 2477 2134 2169 2137 2615 2503 2091 1853 1283 1030 826 454 116 115 127 117 109 47 1 5 28 5 2 0 0 0 0 0 0 0 0 0 0 0 0
3577 3416 3184 2880 2431 1906 1909 2086 2139 2304 2294 1904 1432 1156 535 214 71 37 90 87 3 0 0 0 0 0 0 0 0 0 0 0 0 0 0 0 0 0
2702 3122 3192 3016 2864 2403 1809 1241 1162 1858 2297 2355 1904 1385 705 69 51 18 1 29 3 0 0 0 0 0 0 0 0 0 0 0 0 0 0 0 0 0
1640 1910 2446 2791 2801 2847 2177 1749 1125 1140 1548 1923 2136 1683 635 30 52 31 25 4 0 0 0 0 0 0 0 0 0 0 0 0 0 0 0 0 0 0
586 1465 1889 2243 2594 2788 2752 2658 1875 1232 1245 1313 1539 1540 769 49 50 3 1 1 4 1 0 0 0 0 0 0 0 0 0 0 0 0 0 0 0 0
3 448 1172 1594 1960 2278 2385 2280 2156 1705 1258 1007 1250 1414 727 222 80 1 2 2 1 0 0 0 0 0 0 0 0 0 0 0 0 0 0 0 0 0
0 0 0 0 0 0 0 0 1 126 854 923 897 1060 826 234 3 1 1 1 0 0 0 0 0 0 0 0 0 0 0 0 0 0 0 0 0 0
0 0 0 0 0 0 0 0 0 1 3 5 2 392 635 77 2 0 1 0 0 0 0 0 0 0 0 0 0 0 0 0 0 0 0 0 0 0
0 0 0 0 0 0 0 0 0 0 0 1 9 3 4 1 1 1 2 0 1 0 0 0 0 0 0 0 0 0 0 0 0 0 0 0 0 0
0 0 0 0 0 0 0 0 1 0 0 0 0 0 0 0 0 0 2 2 0 0 0 0 0 0 0 0 0 0 0 0 0 0 0 0 0 0

GFSNE_con_mlcape_036.txt.gz
CAPE
563 690 157 11 16 48 4 1 0 0 0 0 0 0 0 0 0 0 0 0 0 0 0 0 0 0 0 0 0 0 0 0 0 0 0 0 0 0
1272 519 446 129 25 11 39 0 0 0 0 0 3 0 0 0 0 0 0 0 0 0 0 0 0 0 0 0 0 0 0 0 0 0 0 0 0 0
1540 1351 732 194 24 11 9 26 5 2 0 0 2 2 0 0 0 0 0 0 0 0 0 0 0 0 0 0 0 0 0 0 0 0 0 0 0 0
1679 1577 1414 1190 584 0 3 9 58 4 0 0 0 20 9 0 0 0 0 0 0 0 0 0 0 0 0 0 0 0 0 0 0 0 0 0 0 0
1674 1705 1620 1528 1297 959 41 0 24 44 0 0 0 3 26 9 1 0 0 0 0 0 0 0 0 0 0 0 0 0 0 0 0 0 0 0 0 0
1526 1696 1660 1659 1598 1435 1043 313 4 48 71 3 0 0 1 8 0 0 0 0 0 0 1 9 19 23 3 0 0 0 0 0 0 0 0 0 0 0
1694 1749 1848 1833 1751 1667 1448 1197 766 348 51 185 28 0 9 25 19 2 0 0 0 3 0 1 28 0 0 0 0 0 0 0 0 0 0 0 0 0
1795 1731 1670 1832 1844 1805 1762 1686 1365 1169 723 136 122 81 26 8 24 22 7 4 23 20 29 17 0 2 0 0 0 0 0 0 0 0 0 0 0 0
2064 1989 1958 1875 1859 1913 1476 1594 1635 1357 1264 659 361 58 29 3 0 8 37 18 17 11 7 26 7 2 0 6 3 0 0 0 0 0 0 0 0 0
2332 2308 2251 2242 2158 2043 2083 1657 1474 1512 1140 829 381 303 72 33 2 0 1 23 6 7 17 21 0 2 1 15 12 9 0 0 0 0 0 0 0 0
2628 2510 2528 2506 2408 2125 2228 2256 2002 1688 1430 1082 980 688 183 56 1 0 5 9 22 35 8 17 0 0 0 0 0 0 0 0 0 0 0 0 0 0
2600 2737 2531 2532 2592 2363 2382 2427 2458 2352 1835 1612 980 657 405 129 38 32 53 7 5 0 0 0 0 0 0 0 0 0 0 0 0 0 0 0 0 0
2842 2847 2792 2568 2366 2310 2267 2666 2653 2557 2385 1970 1608 1174 751 526 101 75 90 47 12 2 1 1 4 0 0 0 0 0 0 0 0 0 0 0 0 0
3228 3211 3164 2856 2487 2193 1897 2079 2299 2371 2511 2476 1937 1662 1335 720 452 190 105 95 69 24 4 2 0 0 1 0 0 0 0 0 0 0 0 0 0 0
3509 3507 3346 3090 2723 2307 1905 2076 1837 1744 2088 2445 2493 2280 1524 1147 665 284 152 112 69 62 13 3 0 0 0 0 0 0 0 0 0 0 0 0 0 0
2472 2784 2936 2896 2778 2697 2336 1875 1469 1611 1877 2134 2221 2421 2247 1590 962 509 153 48 32 20 0 0 0 0 0 0 0 0 0 0 0 0 0 0 0 0
1686 1758 1944 2014 2181 2355 2505 2539 2193 1738 1511 1370 1456 1703 1936 2076 1329 523 114 45 23 32 1 0 0 0 0 0 0 0 0 0 0 0 0 0 0 0
320 602 589 728 1059 1516 1962 2279 1940 1310 1161 983 1029 1194 1284 1493 1552 775 153 11 22 18 1 1 2 1 1 1 0 0 0 0 0 0 0 0 0 0
0 0 0 3 16 6 1 0 0 0 0 0 0 3 233 571 815 453 286 9 3 26 1 2 2 0 0 0 0 0 0 0 0 0 0 0 0 0
0 0 0 0 0 0 0 0 0 0 0 0 0 0 3 19 9 0 14 114 111 23 7 2 2 1 0 0 0 0 0 0 0 0 0 0 0 0
0 0 0 0 0 0 0 0 0 0 0 0 0 0 0 0 0 1 2 1 13 38 12 1 1 0 0 0 0 0 0 0 0 0 0 0 0 0
0 0 0 0 0 0 0 0 0 0 0 0 0 0 0 0 0 0 0 0 0 0 1 1 2 0 0 0 0 0 0 0 0 0 0 0 0 0
1 0 0 0 0 0 0 0 0 0 0 0 0 0 0 0 0 0 0 0 0 0 0 1 0 0 0 0 0 0 0 0 0 0 0 0 0 0

GFSNE_con_mlcape_039.txt.gz
CAPE
504 566 193 45 23 23 10 0 0 10 1 2 0 0 0 0 0 0 0 0 0 0 0 0 0 0 0 0 0 0 0 0 0 0 0 0 0 0
936 736 598 424 65 15 36 25 3 5 4 0 5 0 0 0 0 0 0 0 0 0 0 0 0 0 0 0 0 0 0 0 0 0 0 0 0 0
1076 1086 994 559 413 204 15 14 24 0 2 0 0 0 0 0 0 0 0 0 0 0 0 0 0 0 0 0 0 0 0 0 0 0 0 0 0 0
990 1228 1210 1256 1027 509 85 12 1 0 18 20 0 0 0 0 0 0 0 0 0 0 0 0 0 0 0 0 0 0 0 0 0 0 0 0 0 0
1113 1117 1262 1349 1170 1161 976 428 0 0 0 0 11 0 0 0 0 0 0 0 0 0 0 0 0 0 0 0 0 0 0 0 0 0 0 0 0 0
1454 1400 1382 1426 1398 1212 1091 1064 785 184 0 0 0 0 0 0 0 0 0 0 0 0 0 0 0 0 0 0 0 0 0 0 0 0 0 0 0 0
1426 1417 1451 1495 1431 1445 1368 1175 953 850 663 166 0 0 0 0 3 1 0 0 0 0 0 0 0 0 0 0 3 0 0 0 0 0 0 0 0 0
1574 1515 1466 1503 1581 1436 1337 1457 1420 1064 968 840 806 505 171 1 0 0 0 0 0 0 0 0 0 0 0 0 4 0 2 0 0 0 0 0 0 0
1852 1806 1772 1726 1694 1786 1508 1423 1286 1329 1465 1474 985 918 637 315 43 3 0 0 0 0 0 0 0 0 1 0 0 0 0 0 0 0 0 0 0 0
1892 1856 1860 1913 1905 1847 1911 1868 1622 1548 1253 955 1252 1496 991 681 105 36 20 4 0 0 0 0 1 0 6 6 0 3 2 0 0 0 0 0 0 0
2114 2117 2179 2182 2127 1932 2066 2161 2196 2046 1530 1321 1182 1175 1098 823 454 30 29 0 15 6 0 3 2 0 2 12 1 0 17 0 0 0 0 0 0 0
2166 2302 2271 2330 2311 2188 2294 2352 2406 2357 2285 2004 1565 1220 994 921 328 115 157 44 3 35 37 2 3 0 0 0 4 3 1 2 0 0 0 0 0 0
2347 2416 2465 2375 2271 2208 2155 2553 2579 2603 2604 2441 2385 2024 1645 1428 1338 553 313 183 216 67 39 0 0 0 0 0 0 0 0 0 0 0 0 0 0 0
2964 2951 2902 2689 2415 2232 1893 2010 2213 2216 2372 2472 2577 2667 2467 2106 1575 1191 835 244 171 317 346 0 0 0 0 0 0 0 0 0 0 0 0 0 0 0
3128 3294 3243 3089 2702 2166 1968 1824 1502 1428 1793 2144 2370 2498 2557 2599 2364 1794 992 645 104 89 100 79 6 0 0 0 0 0 0 0 0 0 0 0 0 0
2325 2595 2719 2630 2517 2623 2560 2366 1834 1647 1775 1831 1948 1944 1980 2078 2225 2195 1631 1054 467 340 159 104 33 11 0 0 0 0 0 0 0 0 0 0 0 0
2346 2340 2495 2496 2320 1901 1736 1796 2134 1687 1110 774 525 346 261 363 369 689 922 996 1134 753 371 300 65 1 0 0 1 0 1 0 0 0 0 0 0 0
1537 1628 1394 895 786 737 693 545 250 27 0 0 0 0 0 0 0 0 1 94 287 340 275 311 170 2 1 0 0 2 0 0 0 0 0 0 0 0
22 4 0 0 0 0 0 0 0 0 0 0 0 0 0 0 0 0 0 2 1 3 9 69 141 15 1 1 0 0 0 1 0 0 0 0 0 0
0 0 0 0 0 0 0 0 0 0 0 0 0 0 0 0 0 0 0 1 0 1 3 5 32 8 2 0 1 1 1 0 0 0 0 0 0 0
0 0 0 0 0 0 0 0 0 0 0 0 0 0 0 0 0 0 0 0 1 2 1 2 2 2 1 0 0 2 1 0 0 0 0 0 0 0
1 0 0 1 0 0 0 0 0 0 0 0 0 0 0 0 0 0 0 1 0 0 1 2 0 0 0 0 2 0 0 0 0 0 0 0 0 0
0 2 1 0 0 0 2 1 0 0 0 0 0 0 0 0 0 0 0 0 1 0 0 0 0 0 0 0 0 0 0 0 0 0 0 0 0 0

GFSNE_con_mlcape_042.txt.gz
CAPE
606 456 423 208 21 0 0 0 18 9 0 0 1 0 0 0 13 50 21 0 0 0 0 0 0 0 0 0 0 0 0 0 0 0 0 0 0 0
869 802 641 455 339 59 21 0 0 0 5 0 0 0 0 0 0 1 3 0 0 0 0 0 0 0 0 0 0 0 0 0 0 0 0 0 0 0
882 1008 943 812 685 462 167 40 0 0 7 12 0 0 0 0 0 0 0 0 0 0 0 0 0 0 0 0 0 0 0 0 0 0 0 0 0 0
1128 929 819 1052 1019 938 847 507 104 0 0 0 0 0 0 0 0 0 1 0 0 0 0 0 0 0 0 0 0 0 0 0 0 0 0 0 0 0
1358 1233 1096 970 994 1104 1101 1026 674 317 22 0 0 0 0 0 0 0 0 0 0 0 0 0 0 0 0 0 0 0 0 0 0 0 0 0 0 0
1375 1443 1430 1273 1150 1196 1066 1070 1094 935 721 597 266 71 0 0 0 1 0 0 0 0 0 0 0 0 0 0 0 0 0 0 0 0 0 0 0 0
1365 1439 1549 1554 1408 1315 1319 1184 920 787 826 566 522 369 243 175 124 28 0 0 4 0 0 0 0 0 0 0 0 0 0 0 0 0 0 0 0 0
1311 1277 1346 1394 1438 1384 1281 1334 1506 1320 1168 1033 857 830 778 539 279 247 144 162 194 19 0 0 0 0 0 0 4 5 0 6 11 0 0 0 0 0
1484 1546 1597 1623 1562 1665 1480 1255 1216 1270 1461 1720 1601 1416 1291 1144 882 546 262 297 393 144 0 0 0 0 0 0 0 0 0 2 10 6 0 0 0 0
1250 1390 1524 1595 1691 1682 1730 1770 1777 1660 1372 1279 1481 1797 1838 1716 1314 1041 820 461 123 90 1 3 5 0 0 0 0 0 0 0 0 1 0 0 0 0
1526 1605 1601 1593 1700 1547 1809 1881 1999 2090 1879 1591 1553 1580 1458 1295 1108 1270 838 177 169 245 97 0 0 0 0 0 0 0 0 0 0 0 0 0 0 0
1587 1796 1747 1925 1947 1799 1946 2131 2307 2364 2356 2308 2092 1562 1285 1327 984 623 1016 1168 907 520 352 0 2 0 0 0 0 0 0 0 0 0 0 0 0 0
1835 1928 2039 1927 1902 1953 1916 2325 2412 2481 2486 2462 2534 2491 2362 2210 2092 1692 1035 939 1202 1020 856 255 148 3 1 9 0 0 0 0 0 0 0 0 0 0
2225 2258 2362 2285 2085 1901 1632 1767 2013 2083 2194 2293 2388 2534 2551 2482 2608 2186 1699 1262 718 1306 1545 1040 395 277 40 41 2 0 0 0 0 0 0 0 0 0
2415 2627 2647 2723 2449 2148 2041 1896 1606 1473 1745 1789 2069 2194 2106 2114 2143 2090 2067 2080 1590 1073 365 333 521 503 215 197 200 29 0 1 1 0 0 0 0 0
1667 2112 2097 2206 2248 2385 2317 2123 1528 1414 1486 1611 1512 1317 1195 737 358 49 0 0 11 73 324 515 329 259 232 283 195 45 0 0 2 2 1 2 0 0
2053 1987 2228 2280 2351 2152 1858 1602 1570 1262 925 455 100 21 0 0 0 0 0 2 0 0 0 0 4 127 245 249 261 71 1 2 0 1 1 1 3 0
2064 2300 2080 1533 1425 1101 667 347 115 1 0 0 0 0 0 0 0 0 0 0 0 0 0 0 0 1 3 28 160 96 49 1 1 1 1 2 3 0
1008 508 243 17 1 0 0 0 0 0 0 0 0 0 0 0 0 0 0 0 0 0 0 2 1 2 2 5 0 0 1 1 1 1 1 1 1 0
0 0 0 0 0 0 0 0 0 0 0 0 0 0 0 0 0 0 0 0 2 0 1 1 1 2 1 0 3 4 0 0 0 1 1 1 0 0
0 0 0 0 1 1 1 1 0 1 1 0 0 0 0 0 0 0 0 0 1 0 0 0 3 0 2 0 1 2 2 0 2 0 1 0 0 0
0 0 0 0 0 0 0 2 1 1 2 0 0 0 0 0 0 0 1 0 0 0 1 2 0 0 0 3 6 3 0 0 0 0 0 0 0 0
1 2 1 0 0 1 1 1 0 1 2 0 0 0 0 0 1 1 1 0 0 0 1 0 0 0 0 0 0 0 0 0 0 0 0 0 0 0

GFSNE_con_mlcape_045.txt.gz
CAPE
1673 1569 1289 1053 643 293 85 60 171 245 184 366 272 346 316 410 453 545 521 366 17 0 0 0 0 0 0 0 0 0 0 0 0 0 0 0 0 0
1572 1638 1429 1089 1067 811 581 340 224 241 280 309 312 380 379 191 228 169 380 285 87 0 0 0 0 0 0 0 0 0 0 0 0 0 0 0 0 0
1891 1659 1561 1757 1506 1305 1009 774 557 340 246 204 387 269 332 379 306 203 205 282 277 6 0 0 0 0 0 0 0 0 0 0 0 0 0 0 0 0
1890 1960 1804 1694 1630 1777 1692 1445 994 903 477 232 353 372 345 397 432 381 332 217 184 103 0 0 0 0 0 0 0 0 0 0 0 0 0 0 0 0
1798 2007 1989 2016 1867 1664 1804 1656 1607 1580 1245 797 688 630 433 237 269 334 268 231 261 95 0 0 0 0 0 0 0 0 0 0 0 0 0 0 0 0
1902 1985 2073 2168 2075 2061 2059 2015 2033 1828 1588 1431 1132 1060 1085 1000 753 448 433 464 361 215 125 0 0 0 0 0 0 0 0 0 0 0 0 0 0 0
2006 2118 2166 2170 1978 1986 2169 2239 2179 2019 1826 1596 1414 1285 1207 1167 1049 997 941 906 831 695 470 345 246 80 9 0 0 0 0 0 0 0 0 0 0 0
1736 1951 2043 1779 1611 1311 1242 1345 1795 2296 2128 2026 1916 1904 2224 2075 1901 1820 1678 1546 1647 1549 1065 579 308 342 211 95 0 0 0 0 0 0 0 0 0 0
1905 2132 2228 2070 1909 1989 1918 1380 1222 1255 1454 1941 2200 2439 2533 2614 2585 2503 2448 2348 2094 1944 1434 1343 1071 823 405 386 36 0 0 0 0 0 0 0 0 0
1720 1760 1888 1896 2022 2062 2064 2094 2189 2253 2108 1533 1549 1897 2398 2677 2848 2751 2565 2153 1697 1585 1412 964 1073 1066 960 686 186 0 0 0 0 0 0 0 0 0
1805 1871 1914 1913 1929 1686 1601 1450 1743 2247 2338 2186 2066 1949 1813 1619 1396 1399 1601 1769 1696 1547 1722 1040 1030 1057 1012 874 666 65 0 0 0 0 0 0 0 0
1807 2027 1763 1741 1852 1634 1697 1914 2238 2543 2821 3114 3256 2469 1879 1815 1507 1017 1562 1740 1766 1758 1923 1739 1270 670 647 863 651 424 199 0 0 0 0 0 0 0
1874 1959 2161 1849 1608 1459 1497 2223 2613 2849 2948 2695 2644 2686 2764 2736 2815 2799 1931 1590 1925 1764 1746 1299 1229 1087 758 534 517 417 343 323 4 0 0 0 0 0
2437 2578 2705 2321 1961 1721 1473 1645 1740 1796 1997 2153 2350 2431 2398 2336 2554 2576 2252 2022 1683 1503 1489 1145 605 572 479 301 277 310 353 50 41 1 0 0 0 0
2499 2781 2561 2407 2084 1819 1697 1798 1571 1494 1665 1774 2078 2037 1827 1894 1817 1551 1532 776 515 365 284 434 622 254 278 204 140 167 141 244 3 3 3 4 3 2
1378 1993 2131 2149 2174 2313 2206 1965 1551 1427 1433 1438 1499 1528 1307 1060 678 208 7 0 0 0 0 0 0 2 2 0 10 1 16 46 12 2 2 4 3 1
2122 2148 2263 2282 2311 2217 2006 1709 1561 1261 1088 1042 957 606 290 24 0 0 0 0 0 0 0 0 0 0 0 5 5 11 13 13 20 15 2 2 2 2
2151 2439 2326 2137 2023 1631 1229 861 516 280 244 92 47 1 0 0 0 0 0 0 0 0 0 0 0 1 0 0 0 0 0 2 2 4 1 1 2 2
2059 1624 1267 748 327 74 20 31 63 1 0 0 0 0 0 0 0 0 1 0 0 0 0 0 1 1 0 0 1 1 0 4 2 1 2 0 2 1
318 187 40 0 0 0 0 0 0 3 3 2 3 3 0 0 2 6 5 0 1 0 0 0 2 1 1 0 2 2 0 4 4 3 1 1 1 1
0 0 1 3 2 2 1 2 2 2 2 1 1 6 5 4 5 4 2 1 0 1 0 2 2 0 5 1 1 4 3 0 1 2 1 1 2 0
0 2 3 3 0 0 0 1 1 1 1 2 2 3 3 5 7 8 9 1 1 0 2 2 1 4 1 1 2 3 4 0 0 0 0 0 0 0
8 4 2 0 1 2 2 1 0 0 0 0 0 0 0 2 4 5 2 1 3 3 3 0 1 0 0 0 0 0 0 0 0 0 0 0 0 0

GFSNE_con_mlcape_051.txt.gz
CAPE
1617 1613 1360 673 589 491 329 376 423 611 685 1380 300 660 429 406 598 857 825 867 408 184 19 0 0 0 0 0 0 0 0 0 0 0 0 0 0 0
1217 1906 1809 1219 847 925 800 606 426 463 503 395 545 491 646 691 667 772 742 617 505 455 274 79 1 0 0 0 0 0 0 0 0 0 0 0 0 0
1899 1673 1784 2023 1454 846 867 774 716 703 649 556 415 456 1118 1559 1455 1447 1193 1253 964 509 300 155 46 1 0 0 0 0 0 0 0 0 0 0 0 0
1825 1846 1800 1880 2291 2289 1954 1634 1133 1244 973 1010 979 1140 1442 1430 1437 1693 1353 1396 1144 909 463 214 66 2 0 0 0 0 0 0 0 0 0 0 0 0
1726 1976 2048 2104 2328 2071 2229 1522 1344 1803 2047 2070 1994 1724 1442 1351 1357 1709 1968 2018 1965 1589 1143 708 338 105 1 0 0 0 0 0 0 0 0 0 0 0
1957 2041 2151 2295 2577 2839 2670 2754 2545 2292 1892 1878 1746 1720 1415 1151 1212 1529 1833 1916 2157 2122 2115 1959 1550 661 393 140 15 0 0 0 0 0 0 0 0 0
2038 2155 2185 2338 2286 2734 2679 2724 2624 2661 2219 1857 1584 1353 1235 1407 2033 2046 2065 2403 2125 1890 2069 2919 3166 3064 2285 881 527 330 93 0 0 0 0 0 0 0
2282 2403 2400 2275 2128 2107 2240 2283 2255 2688 3098 2455 1885 1712 2020 2186 2178 2126 2108 1967 2421 2804 3501 3398 3213 3134 3011 2920 2763 1877 1092 448 84 0 0 0 0 0
2002 2402 2373 1660 2082 2596 2441 2219 2035 1759 1634 1883 1935 2014 2040 2448 2787 2815 2398 2996 3658 3524 3210 3052 3033 2819 2827 2684 2586 2266 1754 1229 800 227 2 0 0 0
1982 2231 2440 2199 2249 2367 2554 2457 2726 2989 2824 2337 2279 2532 2887 2983 3114 3106 3314 3331 3298 3138 3195 3011 3051 3170 3224 2893 2243 1517 980 545 398 256 10 0 0 0
1974 1958 2085 2410 2759 2267 1924 1917 2187 2461 1798 1461 1440 1589 1769 1767 1592 2091 2702 2985 2945 2985 3219 3206 3196 2989 2575 1540 1198 798 592 419 233 178 43 0 0 0
2100 2381 2170 2098 2283 2218 2458 2561 2629 2820 2551 2435 2714 3005 2937 3073 2627 2339 2752 2964 3000 2851 2927 2788 2691 2289 1368 1209 835 392 144 40 0 0 0 0 0 0
1550 1208 1517 1575 1596 1467 1425 2128 2405 2624 2480 2929 3387 3717 3604 3727 3496 3254 3179 3126 3039 2590 2702 2704 2294 1189 637 304 45 4 0 0 0 0 0 0 0 0
1409 788 993 929 960 1240 1321 1593 1781 1810 2243 2570 2914 3237 3290 3077 2848 3041 2927 2595 3036 2760 2995 1869 902 384 70 0 0 0 0 0 0 0 0 1 0 0
1984 1398 1342 1778 2148 1747 1754 2093 1972 2289 2576 2904 3060 2869 2595 2480 2623 2335 2713 2971 2567 2462 1332 523 283 50 0 0 0 0 0 0 0 0 0 0 3 3
1841 1984 2129 2352 2656 3050 3001 2253 2661 3058 3248 2795 2493 2167 2136 2035 2187 2763 2246 1343 449 332 351 164 11 0 0 0 0 0 0 0 0 1 3 3 3 5
2214 2287 2327 2624 2979 3260 3262 3487 3554 2810 2322 2114 1998 2017 1700 2224 2308 1769 668 337 307 219 209 62 0 0 0 0 0 0 0 0 0 3 2 2 3 2
2346 2928 3164 3201 3177 3326 3149 2850 2400 2060 1836 1749 1743 1781 1777 1438 898 434 292 212 244 215 139 0 0 0 0 0 0 0 0 0 2 2 1 3 3 2
3214 3148 3577 3222 2803 2458 2252 1897 1723 1402 1257 1266 882 926 775 530 248 219 239 238 239 224 2 0 0 1 0 0 0 0 0 1 2 1 2 1 2 1
3006 2455 2054 1558 1198 958 594 418 443 827 692 562 517 364 242 261 294 297 202 152 41 4 0 0 3 3 0 0 0 0 0 0 1 1 1 2 2 1
1515 1061 653 496 404 298 229 205 173 100 88 68 24 38 83 55 49 15 2 0 0 4 4 3 7 0 0 1 5 1 0 0 0 3 0 2 2 2
1224 819 372 117 21 13 1 2 1 2 2 5 4 4 6 2 3 2 3 5 9 5 8 1 4 21 7 10 4 1 1 3 0 0 0 0 0 1
66 6 1 0 0 1 1 0 0 1 2 0 4 3 2 1 1 3 5 7 11 21 9 2 4 10 4 4 0 0 0 0 1 1 0 0 0 0

GFSNE_con_mlcape_054.txt.gz
CAPE
1500 1506 1084 1314 1186 500 481 384 587 528 884 881 461 627 587 538 742 615 597 678 499 309 142 30 1 0 0 0 0 0 0 0 0 0 0 0 0 0
1555 1919 1632 1158 1489 1155 1005 963 664 502 552 707 831 943 950 820 810 845 900 753 642 454 327 179 81 10 0 0 0 0 0 0 0 0 0 0 0 0
1877 2038 1991 1664 1639 1986 1510 966 850 1041 964 936 1264 1132 1384 1471 1337 1249 1283 1164 1226 998 807 508 264 109 7 0 0 0 0 0 0 0 0 0 0 0
1643 1518 2144 2329 2020 1611 1887 1993 2059 2160 1643 1399 1384 1076 1237 1790 1891 1943 1882 1583 1433 1546 1171 887 628 304 34 0 0 0 0 0 0 0 0 0 0 0
2185 2031 1870 2028 2137 2722 2431 2008 1652 1823 1846 1765 2267 2639 2318 1922 1778 2002 2211 1904 1757 1805 1764 1507 1196 910 431 206 39 0 0 0 0 0 0 0 0 0
2271 1905 2206 2390 2348 2498 2394 2239 2361 2285 2032 1920 1817 2132 2226 1967 2175 2272 2202 2268 2152 2502 2251 1505 2192 2351 1674 1151 636 252 202 16 0 0 0 0 0 0
2128 2228 2282 2490 2498 2630 2898 2975 2835 2757 2809 2868 2812 2497 1952 1981 1896 2214 2552 2702 2243 1878 1890 3482 3577 3293 3299 2330 1630 1334 1077 726 277 44 0 0 0 0
2247 2216 2536 2320 1956 1769 1913 2234 2381 2545 2721 2985 2946 2416 2099 2061 2367 1870 1717 2091 1990 2894 3713 3159 3418 3258 3259 3050 2703 2099 1962 1434 909 266 11 0 0 0
2555 2529 2598 2431 2160 2314 1892 1670 1775 1848 1890 2019 1900 1842 1746 1863 2276 2433 2562 2827 3053 3516 3250 3141 3383 3182 3208 3372 3036 1856 1247 666 427 159 4 0 0 0
2064 2104 2217 2396 2047 2532 2695 2808 2544 2490 2319 1988 1980 2273 2527 2609 2694 2612 2810 2945 2723 3064 3110 2915 3124 3283 3322 2476 2125 1403 635 49 0 0 0 0 0 0
1294 1402 2202 2751 2450 1741 1327 1481 1829 2189 2653 2546 2596 2408 2333 2279 2401 2397 1935 2025 3014 3116 3121 2904 2959 2871 2368 1977 1588 141 5 0 0 0 0 0 0 0
1588 1741 1743 1473 1451 1862 2394 2555 2354 2348 2617 2791 2729 2622 2726 3067 2998 2519 2968 3103 2929 3071 2895 2690 2589 2444 1790 1228 241 0 0 0 0 0 0 0 0 0
1859 1904 2191 1965 1612 1433 1463 1845 1973 2459 2838 2844 2595 2762 3225 3244 3458 3244 3067 3046 2910 2951 3060 2705 2406 1114 729 329 78 0 0 0 0 0 0 0 0 0
2047 2121 1975 1540 1497 1358 1189 1259 1498 1635 1947 2064 2339 2562 2875 3510 3334 3024 3126 2945 3028 2850 2648 2167 1844 648 166 1 0 0 0 0 0 0 0 0 0 1
2366 2146 1447 1316 1018 723 590 921 1109 1440 2018 2544 2752 2931 3300 2991 2702 2806 2935 2584 2758 2580 2459 2616 631 179 0 0 0 0 0 0 0 0 1 1 3 2
2079 2257 2000 1791 2130 2586 2420 1494 1934 2629 2905 3022 3023 3015 2500 2511 2538 2212 2352 2383 1821 506 1083 484 184 37 0 0 0 0 0 0 0 0 2 2 0 1
2045 2181 2268 2100 2004 2513 3143 3347 3013 3007 3019 2941 2666 2385 2309 2136 1961 2211 2203 1570 472 419 280 583 149 38 0 0 0 0 0 0 0 1 1 1 2 2
1876 2346 2341 2302 2280 2474 2973 3261 3149 3083 2780 2342 2117 1958 1716 1875 1977 1273 573 322 258 353 486 97 7 40 1 0 0 0 0 0 0 2 1 3 1 2
2456 2304 2651 3089 3272 3233 3027 2732 2524 2174 1866 1598 1733 1416 1032 1204 644 414 335 381 427 360 153 12 0 31 0 0 0 0 0 0 0 0 0 0 1 1
2474 3126 3043 2881 2452 2193 1894 1803 1567 1119 1133 825 542 434 354 332 381 416 303 187 114 37 3 0 5 0 0 0 0 0 0 0 0 0 0 0 1 1
1845 2020 1914 1457 1207 800 509 417 373 310 225 147 96 65 93 102 102 87 42 0 0 0 0 0 0 0 0 0 0 0 0 0 0 0 0 0 0 0
674 696 407 196 206 132 99 60 14 0 1 0 0 0 0 0 0 1 0 2 2 4 4 1 2 10 3 14 11 11 0 0 0 0 0 0 0 0
29 2 0 0 0 0 0 0 0 0 0 0 0 0 2 0 1 0 0 1 3 11 12 16 0 3 3 16 24 5 0 0 0 0 0 0 0 0

GFSNE_con_mlcape_057.txt.gz
CAPE
748 562 563 559 871 1039 350 201 323 305 438 719 689 718 483 516 568 652 460 396 281 261 170 52 10 0 0 0 0 0 0 0 0 0 0 0 0 0
1297 1587 1076 371 390 1646 934 763 699 458 345 494 471 1205 1063 849 778 638 514 550 646 574 363 339 220 150 17 0 0 0 0 0 0 0 0 0 0 0
1595 1379 1552 1590 966 1383 1862 1586 991 782 701 653 1012 1237 1020 890 824 994 965 1075 998 901 793 746 680 551 242 33 44 12 0 0 0 0 0 0 0 0
1540 1354 1629 2059 1606 1476 1401 1406 1614 1781 1585 1253 1075 952 1833 2129 1949 1824 1878 1962 1698 1489 1290 1102 935 886 832 545 506 207 19 0 0 0 0 0 0 0
1717 1574 1415 1258 2016 2110 1863 1932 2010 1911 2338 2157 2077 2268 2077 1703 1878 1918 2136 2173 2276 2113 1907 1817 1356 1822 1872 1455 1040 784 574 26 35 0 0 0 0 0
1756 1962 1845 1833 1785 1738 1948 2005 1881 1857 1790 1718 1616 1808 2151 2370 2294 2004 1601 1911 1865 1678 1457 1755 3264 3036 2616 2376 1768 1371 1077 704 368 159 27 0 0 0
1338 1367 2089 1988 1855 2038 2180 2205 2359 2312 2280 2392 2476 2723 2790 2493 1965 1625 1354 1237 1978 1983 2335 3283 2892 3038 3332 2961 2585 2147 1547 828 314 24 0 0 0 0
1815 1778 1577 2013 2012 1887 2070 2355 2492 2484 2613 2827 2719 2534 1973 1595 1365 1463 1702 1889 2025 2590 3051 2767 2937 3004 3030 3137 3107 1802 984 0 0 0 0 0 0 0
2025 2018 1926 1890 1889 2126 1993 1765 1632 1582 1765 1875 1743 1640 1621 1695 1954 2019 1848 2012 2115 2545 2898 2680 2923 2800 3013 3246 2079 854 0 0 0 0 0 0 0 0
1664 2158 2139 2037 2052 2071 2030 2062 1942 1680 1614 1545 1593 1936 2028 2109 2162 2049 2264 2550 2881 2579 2264 2891 2899 2778 2886 2198 909 0 0 0 0 0 0 0 0 0
1373 1477 1669 1923 1928 1885 1673 1635 2138 2659 2915 2616 2516 2255 1929 1985 2003 2116 2580 2844 2615 2770 3069 2954 2801 2580 2311 1331 67 0 0 0 0 0 0 0 0 0
1088 1239 1495 1789 1941 2024 2105 1913 1603 1149 1253 1553 1886 1834 1958 2102 2109 1868 2507 2773 2859 2974 2770 2734 2667 1949 891 803 149 0 0 0 0 0 0 0 0 0
969 985 1149 993 827 766 724 1062 1481 1744 1884 2027 2362 2740 2517 2355 2735 2545 2608 2821 2802 2952 2831 2720 2373 1289 648 292 10 0 0 0 0 0 0 0 0 0
1186 1185 1175 1207 1159 1032 838 933 1038 1100 1644 1900 1991 1901 1892 2207 2609 3104 2886 2835 2830 2837 2747 2388 2011 1102 307 10 0 0 0 0 0 0 0 0 0 0
1753 1523 1593 1575 1301 1116 1051 1031 932 1044 1352 1550 1567 1739 2344 2631 2762 2693 2685 2682 2456 2388 2357 2080 1910 795 30 0 0 0 0 0 0 0 0 0 0 1
1858 1694 1501 1459 1393 1471 1241 591 398 751 1065 1417 2003 2481 2571 2672 2543 2366 2211 1974 1841 1265 636 1481 1110 99 0 0 0 0 0 0 0 0 0 0 0 0
1849 1751 1647 1654 1708 1693 1881 1867 1485 1495 2034 2503 2731 2730 2678 2318 2299 1848 1890 1644 1326 304 98 319 0 0 0 0 0 0 0 0 0 0 0 0 0 0
1600 1978 1956 2001 2034 1918 1889 2057 2168 2384 2574 2623 2622 2591 2288 1981 1593 1642 1415 199 148 89 151 0 0 0 0 0 0 0 0 0 0 0 0 0 0 1
2079 1909 1995 2033 2055 1975 1844 1885 2467 2843 2906 2686 2298 1836 1504 1303 1043 470 252 156 145 42 6 0 0 0 0 0 0 0 0 0 0 0 0 0 0 0
1706 1750 1972 2125 2118 2293 2433 2507 2217 1962 1798 1565 1304 841 301 248 208 105 53 31 0 0 0 0 0 0 0 0 0 0 0 0 0 0 0 0 0 0
1480 1219 1102 795 547 516 376 248 570 582 629 299 148 101 69 36 24 3 0 0 0 0 0 0 0 0 0 0 0 0 0 0 0 0 0 0 0 0
900 649 390 268 153 57 44 11 0 6 22 18 2 0 0 0 0 0 0 0 0 0 0 0 1 0 0 0 0 0 0 0 0 0 0 0 0 0
306 221 79 28 27 0 0 0 0 0 0 0 0 0 0 0 0 0 0 0 0 0 0 0 0 0 0 0 2 0 0 0 0 0 0 0 0 0

GFSNE_con_mlcape_060.txt.gz
CAPE
353 250 429 447 414 603 912 101 182 202 294 528 540 633 565 294 310 469 509 432 401 342 195 88 61 6 0 0 9 5 2 0 0 0 0 0 0 0
933 709 557 387 314 441 1464 736 473 395 354 315 376 820 1138 855 826 738 604 554 482 473 409 381 386 270 174 120 62 110 55 7 1 0 0 0 0 0
1048 1095 928 1313 1224 935 1241 1363 1380 977 684 563 578 1112 1096 1054 1811 1706 1502 1362 1311 1392 1402 1232 931 768 760 527 470 517 190 52 6 4 0 0 0 0
930 1133 1302 1528 1612 1442 1396 1267 1163 1270 1383 1207 1124 1509 1636 1909 1651 1746 2124 1999 2100 2174 1959 1645 1324 1156 1412 1844 1404 1029 738 364 260 91 0 0 0 0
1236 1260 1201 1144 1301 1848 1795 1740 1610 1729 2091 2049 1946 1814 1759 1486 2086 2157 1896 1679 1608 1408 1670 1774 2089 2624 2367 2182 1935 1604 973 529 100 11 0 0 0 0
1150 1141 1549 1522 1285 1164 1455 1527 1610 1636 1618 1534 1441 1505 1866 2224 2331 2280 2244 1495 1258 1640 1993 2187 2428 2555 2707 2786 2541 1867 548 55 0 0 0 0 0 0
989 1196 1287 1732 1885 1701 1820 1775 1832 1824 1870 1921 1970 2285 2458 2437 2380 2062 1407 1463 1651 1760 2058 2633 2469 2611 2783 2870 2548 346 0 0 0 0 0 0 0 0
716 1209 1344 1280 1336 1760 1824 1924 2035 2051 2056 2106 2111 2114 2042 1855 1538 1559 1752 1846 1778 1910 2299 2339 2481 2688 2656 2817 567 0 0 0 0 0 0 0 0 0
973 1323 1453 1611 1646 1557 1599 1862 1821 1983 2225 2271 2071 1895 1771 1667 1752 2008 2112 1901 1971 2172 2609 2743 2300 2697 2608 1591 0 0 0 0 0 0 0 0 0 0
1224 1375 1507 1487 1611 1724 1691 1554 1628 1703 1662 1406 1456 1647 1615 1745 2014 2242 2079 2117 2363 2758 2566 2597 2756 2689 2354 0 0 0 0 0 0 0 0 0 0 0
1111 1164 1306 1322 1291 1574 1774 1742 1731 1731 1811 1913 1945 2024 2114 2029 1711 1926 2137 2273 2492 2594 2731 2959 2669 2579 2045 82 0 0 0 0 0 0 0 0 0 0
1172 1155 1165 1441 1420 1313 1430 1423 1432 1340 1349 1321 1419 1312 1370 1628 1715 1647 2183 2217 2530 2644 2641 2791 2708 1783 730 597 1 0 0 0 0 0 0 0 0 0
876 881 945 958 1004 1083 986 1401 1331 1353 1342 1458 1717 1793 1693 2161 2464 2019 1670 2022 2398 2727 2728 2644 2479 1765 648 341 2 0 0 0 0 0 0 0 0 0
1070 841 856 689 595 640 667 862 774 611 749 996 1151 1287 1497 1780 1751 2024 2601 2492 2438 2776 2849 2547 1960 1280 692 195 0 0 0 0 0 0 0 0 0 1
1594 1325 952 791 651 588 596 555 437 498 809 1048 1296 1396 1400 1551 1714 2281 2480 2398 2469 2211 2177 2147 1849 1100 626 104 0 0 0 0 0 0 0 0 0 0
1542 1655 1399 1136 984 1000 911 791 541 588 587 670 813 1040 1319 1586 2325 2371 2444 2248 1856 1558 443 816 1197 909 508 0 0 0 0 0 0 0 0 0 0 0
1324 1210 1193 1209 1299 1205 1155 1162 852 725 745 676 788 1138 1756 2265 2382 2263 1949 1648 1668 1094 217 53 0 0 0 0 0 0 0 0 0 0 0 0 0 0
1087 1310 1317 1269 1352 1482 1454 1590 1447 1336 1351 1388 1698 2106 2453 2359 2431 1853 1518 1592 895 234 47 27 0 0 0 0 0 0 0 0 0 0 0 0 0 0
2026 1706 1738 1619 1631 1612 1585 1620 1727 1666 1514 1663 2013 2158 2064 2023 1511 1264 827 201 32 0 1 0 0 0 0 0 0 0 0 0 0 0 0 0 0 0
1634 1982 1810 1605 1591 1673 1548 1478 1448 1503 1596 1337 1029 957 778 599 307 305 259 69 3 0 0 0 0 0 0 0 0 0 0 0 0 0 0 0 0 0
1308 1481 1434 1425 1453 1267 1028 1091 966 862 610 170 27 116 9 44 54 5 8 0 0 0 0 0 0 0 0 0 0 0 0 0 0 0 0 0 0 0
971 944 1050 952 874 681 367 123 24 14 2 0 0 8 23 0 0 0 0 0 0 0 0 0 0 0 0 0 0 0 0 0 0 0 0 0 0 0
531 542 344 285 152 71 37 27 10 0 0 0 0 0 0 0 0 0 0 0 0 0 0 0 0 0 0 0 0 5 6 0 0 0 0 0 0 0

GFSNE_con_mlcape_066.txt.gz
CAPE
396 421 492 566 489 403 865 251 257 237 261 266 410 508 958 1098 1138 1476 1499 1758 1536 1263 990 1000 983 906 855 881 948 1117 816 484 286 98 73 68 68 96
747 574 364 339 398 448 725 791 590 533 503 253 513 708 1233 1643 1585 1544 2030 1781 1753 1465 1281 1348 1760 1827 1851 1768 1584 1276 981 621 371 273 117 85 75 61
565 769 801 796 740 1029 1150 1142 1088 878 1203 1179 837 1163 1613 1748 1536 1801 2244 2179 2016 1466 1377 1499 2077 2098 2174 2133 2032 1405 918 512 225 63 6 2 1 0
794 773 888 1070 1105 1114 1451 1366 1311 1232 1157 1238 1269 1567 1476 1422 1600 2029 2293 1971 1644 1777 1419 1561 1995 2248 2286 2087 1557 869 356 5 0 0 0 0 0 0
871 904 985 1038 1038 1287 1474 1404 1607 1606 1524 1408 1482 1528 1533 1622 1758 1897 1765 1702 1750 1860 1577 1702 1891 2237 2196 1632 569 0 0 0 0 0 0 0 0 0
872 1050 1116 1180 1266 1288 1330 1370 1364 1437 1497 1475 1530 1486 1600 1833 1804 1666 1566 1712 1708 2068 1595 1575 2046 2201 1450 195 0 0 0 0 0 0 0 0 0 0
840 855 974 1114 1105 1139 1250 1565 1549 1511 1516 1600 1587 1641 1604 1731 1712 1849 1696 1615 1845 1845 1538 2048 2408 2442 401 0 0 0 0 0 0 0 0 0 0 0
859 949 1025 1021 995 905 928 1080 1455 1721 1788 1805 1680 1492 1739 1848 1718 1730 1701 1688 1887 1859 1949 1963 2558 2414 381 0 0 0 0 0 0 0 0 0 0 0
918 979 927 920 865 972 802 815 927 932 1135 1527 1488 1776 1748 1754 1662 1797 1722 1726 1817 1731 1890 2124 2371 2179 18 0 0 0 0 0 0 0 0 0 0 0
887 947 929 909 924 949 982 974 1086 1296 1233 1131 1216 1417 1515 1615 1651 1678 1541 1472 1544 1680 1994 2280 2010 2118 37 0 0 0 0 0 0 0 0 0 0 0
295 478 729 908 912 754 1023 917 1065 1100 1271 1060 1225 1291 1255 1192 1127 1209 1263 1427 1537 1825 2039 1976 2235 2039 256 0 0 0 0 0 0 0 0 0 0 0
65 205 279 762 803 682 853 769 827 879 1034 1062 970 876 761 842 622 657 1192 1282 1439 1922 1942 2076 2162 2035 1329 92 0 0 0 0 0 0 0 0 0 0
0 34 271 90 341 402 401 635 515 856 983 1009 1121 1133 1054 1021 1194 844 836 1160 1534 1829 1754 2006 2128 1826 1426 642 77 0 0 0 0 0 0 0 0 0
73 151 293 185 0 0 4 76 191 425 901 989 934 936 955 1011 1116 1030 1043 1054 1527 1753 1662 1922 1885 1931 1412 857 667 1 0 0 0 0 0 0 0 0
349 275 245 217 162 88 37 65 48 110 361 565 622 622 734 792 751 864 1089 1292 1437 1419 1639 1896 2020 1890 1317 1271 759 135 4 0 0 0 0 0 0 0
260 463 586 497 490 505 335 196 95 219 362 491 598 607 505 536 781 1002 885 1223 1509 2034 1445 931 1272 1464 1244 827 446 245 0 0 0 0 0 0 0 0
258 352 629 686 712 751 595 589 433 361 406 483 556 644 667 746 883 821 840 1249 1670 1961 1476 413 106 334 366 384 267 132 0 0 0 0 0 0 0 0
207 612 628 677 772 704 711 757 481 313 437 616 684 777 923 886 931 983 966 1328 1843 1980 1559 537 72 85 25 3 5 0 0 0 0 0 0 0 0 0
842 840 870 916 840 875 868 754 696 565 504 487 629 807 1007 1024 1028 1213 1145 1369 1797 1704 1346 639 272 233 128 110 0 0 0 0 0 0 0 0 0 0
905 1092 1236 1178 1213 1055 974 914 876 843 787 715 776 960 1081 1084 1139 1233 1346 1287 1476 850 503 137 55 28 39 66 7 0 0 0 0 0 0 0 0 0
604 991 1221 1456 1328 1159 1093 1153 1078 1183 1126 1106 1045 1161 1210 1208 1294 1269 1125 765 368 243 287 110 9 0 0 0 0 0 0 0 0 0 0 0 0 0
1052 848 956 1224 1375 1230 1168 1219 1213 1163 1156 1155 1234 1035 774 620 607 363 416 276 143 142 58 0 0 0 0 0 0 0 0 0 0 0 0 0 0 0
1240 1267 1043 994 1067 1142 1237 1129 1058 1035 900 749 524 293 180 207 157 93 43 36 33 16 0 0 0 0 0 0 0 0 0 0 0 0 0 0 0 0

GFSNE_con_mlcape_069.txt.gz
CAPE
1230 1237 1329 1421 1306 1193 1486 1127 989 798 750 1003 1103 1595 2023 2359 2094 2253 2648 2233 1797 1271 1261 1210 1772 1867 1830 1843 1701 1472 1230 880 678 548 418 296 227 183
1273 1349 1131 1086 1122 1223 1331 1422 1441 1490 1115 1329 1341 1729 2219 2501 2016 2452 2929 2255 2466 1606 1448 1198 1755 2051 2104 2152 2009 1605 1157 783 510 236 94 28 8 6
1245 1258 1445 1639 1208 1312 1656 1792 1699 1503 1443 1420 1854 2027 2316 2532 2264 2584 2649 2526 1730 2007 1688 1275 1530 1954 2135 2112 1663 992 609 111 0 0 0 0 0 0
1306 1370 1203 1524 1810 1927 1769 2002 1884 2102 1736 1761 1910 1969 2303 2400 2561 2735 2362 1859 2405 1943 1695 1410 1574 1921 2024 1740 949 198 0 0 0 0 0 0 0 0
1405 1461 1485 1757 1759 1702 1983 2010 1955 2241 2306 2112 1897 2045 2179 2151 2266 2093 2504 2654 2076 1725 1484 1551 1880 1902 1570 572 0 0 0 0 0 0 0 0 0 0
1615 1575 1579 1727 1823 2113 1982 2141 2121 2056 1993 2188 1811 1857 1865 2165 2403 2096 1754 1839 2127 2193 1496 1872 2374 1358 301 0 0 0 0 0 0 0 0 0 0 0
1782 1676 1483 1478 1395 1499 1560 1727 2060 2193 1954 1777 1697 1653 1617 1582 1519 1908 1872 2061 2000 2551 1758 2175 2762 3278 76 0 0 0 0 0 0 0 0 0 0 0
1539 1660 1621 1114 850 724 749 864 1211 1835 2044 1853 1496 1381 1837 1967 1791 1811 1852 1989 1465 1791 2190 2199 2773 3135 1328 268 0 0 0 0 0 0 0 0 0 0
1568 1628 1625 1371 1297 1539 1114 652 585 583 900 1417 1521 1529 1506 1666 2060 2061 1985 2259 1753 1495 1858 2313 2882 2918 805 0 0 0 0 0 0 0 0 0 0 0
1388 1459 1502 1565 1701 1466 1536 1587 1583 1575 1300 945 1238 1570 1924 2175 2341 2192 2338 2104 1893 1766 2299 2518 2465 2938 710 0 0 0 0 0 0 0 0 0 0 0
1053 1173 1349 1236 1107 585 1003 1373 1530 1602 1324 1300 1219 1366 1205 1055 1243 1624 1505 1269 906 833 2174 2870 2260 2889 1047 239 0 0 0 0 0 0 0 0 0 0
537 897 624 642 695 226 204 777 1218 1049 1155 1143 1526 1037 650 821 435 889 1387 1285 979 1106 1719 2400 2053 2660 2286 1027 9 0 0 0 0 0 0 0 0 0
253 140 151 138 0 6 5 598 737 977 827 1128 1168 1329 1469 1646 1734 1189 1149 1367 1136 1108 1621 2493 1991 2741 2279 1681 774 88 5 1 0 0 0 0 0 0
622 546 448 83 0 0 0 20 240 477 696 464 466 893 1029 1085 1213 1459 1917 1982 1551 1457 1762 2275 2164 2346 2352 2017 1616 712 139 0 0 0 0 0 0 0
540 719 522 253 0 0 0 19 8 153 460 462 403 511 767 1010 1291 1438 1523 1669 1930 2057 1847 2440 2231 2415 2257 1898 2020 1490 302 19 0 0 0 0 0 0
38 325 440 287 206 329 289 24 73 443 480 439 358 441 806 1081 1122 1188 1128 1392 1660 1768 1951 2134 1993 2192 2043 1811 1640 1512 536 170 0 0 0 0 0 0
90 256 536 625 651 724 735 803 843 655 536 654 691 698 877 1042 1130 1314 1422 1511 1521 1528 1457 2262 1152 1183 1216 1326 1378 1072 843 163 10 0 0 0 0 0
203 751 891 849 852 793 893 946 868 812 783 619 654 691 782 972 1185 1438 1571 1552 1546 1607 1492 2014 1104 625 386 350 422 650 301 101 4 0 0 0 0 0
575 918 960 1010 870 847 1020 1074 992 889 1069 763 643 706 850 986 1201 1413 1609 1744 1693 1662 1740 2140 1263 570 737 768 353 3 168 32 0 0 0 0 0 0
727 1010 1173 949 1045 1097 1170 1118 1033 1310 1328 1252 869 816 911 1030 1181 1455 1628 1731 1602 1762 1719 974 691 494 556 756 662 144 0 0 0 0 0 0 0 0
413 793 1032 1246 1234 1328 1409 1372 1225 978 1015 1400 1294 1175 1236 1289 1372 1623 1748 1448 1628 1424 1020 889 521 189 278 60 45 26 0 0 0 0 1 2 4 3
1448 1095 921 1267 1247 1336 1491 1444 1379 1120 1057 1176 1293 1246 1197 1227 1303 1359 1370 939 771 755 721 762 105 36 39 54 81 28 0 0 0 0 0 0 2 1
1546 1599 1447 1215 1330 1516 1533 1425 1262 1192 1133 1093 1216 1249 1162 1152 1056 748 531 508 514 461 373 153 45 11 11 2 0 0 0 0 0 0 0 0 0 0

GFSNE_con_mlcape_075.txt.gz
CAPE
1102 962 1156 1039 628 997 818 892 1344 1177 943 1794 1194 2087 1861 1762 2161 2336 2166 1820 1782 2173 1493 1166 1375 1601 1836 1910 1685 1166 802 434 58 0 0 0 0 0
539 1078 1116 1148 841 794 865 949 965 1115 1159 1239 1276 1812 2648 2579 2229 2487 2550 1998 1773 2191 1463 1040 1364 1436 1783 1595 1161 495 19 0 0 0 0 0 0 0
1268 1070 1712 1728 1332 738 643 796 938 1062 1028 896 1337 1978 2890 2620 2755 2994 2631 2348 1905 1491 1174 1128 1237 1537 1695 1327 427 2 0 0 0 0 0 0 0 0
1325 1290 1153 1260 1884 1689 1471 1436 1226 1749 1488 1746 1460 1233 1703 2164 2700 2842 2420 1718 1861 1330 980 1136 1319 1725 1448 842 25 0 0 0 0 0 0 0 0 0
1366 1384 1378 1510 1544 1449 1607 1086 1187 1642 1592 1632 1649 1461 1366 1551 1819 2233 2517 1975 2112 1126 664 970 1379 1674 1121 352 11 0 0 0 0 0 0 0 0 0
1765 1584 1477 1553 1795 1908 1740 1926 1582 1606 1367 1242 1112 1165 1214 1352 1542 1606 1425 976 1052 1229 1309 1353 1263 1052 591 36 0 0 0 0 0 0 0 0 0 0
1886 1821 1832 1529 1451 1826 1745 1804 1632 1948 1339 1105 1022 1046 1076 1273 1798 1920 1202 1031 1206 905 857 1360 1272 929 378 0 0 0 0 0 0 0 0 0 0 0
2103 2283 2281 1575 1333 1096 1236 1293 1469 2175 2376 1926 1498 1319 1859 1613 1201 1253 1221 917 641 875 1143 1124 530 548 1346 604 172 0 0 0 0 0 0 0 0 0
1936 2249 1967 1211 1626 1904 1293 713 391 210 331 969 1366 1548 1401 1498 1455 1734 1253 1736 1506 1048 889 606 733 1034 1459 646 95 0 0 0 0 0 0 0 0 0
1626 2035 2004 1978 1959 2186 1992 1882 1855 1667 1279 831 828 985 1382 1715 1783 1755 1985 2291 1979 1717 1692 1411 771 715 873 720 108 4 0 0 0 0 0 0 0 0
1392 1322 1590 2025 2208 1482 1715 2084 1918 2037 1188 1305 1322 1405 1369 1110 992 1108 797 387 209 83 47 79 101 192 380 1223 131 0 0 0 0 0 0 0 0 0
884 1124 909 1168 1494 1711 1587 1628 1731 1752 1969 841 1052 1087 938 1094 774 848 1082 886 391 164 41 62 102 180 415 764 1030 7 0 0 0 0 0 0 0 0
796 780 794 540 252 613 918 1783 1847 2077 1817 1149 798 483 373 927 1518 1627 1744 1349 688 361 209 94 95 124 204 334 826 630 197 14 0 0 0 0 0 0
1027 820 837 394 66 25 61 325 482 998 1204 840 388 59 11 62 60 121 1281 1903 1637 1359 1110 969 1229 766 385 231 296 1036 1589 596 44 105 56 0 0 0
1129 1040 665 356 349 0 0 54 47 238 463 681 594 286 5 0 0 11 64 1894 2069 2095 2057 2321 2252 1978 1676 1152 788 738 991 1940 1267 719 362 22 0 0
608 668 597 576 613 679 731 339 126 289 475 616 588 447 125 0 0 14 16 21 164 865 2159 2123 1989 2767 2064 1718 1593 1451 1110 1443 1940 704 408 134 16 0
826 1030 913 750 711 922 1125 1196 1290 898 579 559 666 521 245 78 37 37 21 13 115 437 507 484 2142 2328 2490 2238 1868 1693 1586 1686 2040 1325 244 180 90 18
846 1147 1285 1303 1421 1361 1378 1420 1485 1197 1049 963 789 625 478 455 490 430 146 36 83 301 439 543 510 1484 1669 2366 2357 2189 1961 1784 1703 1435 252 308 226 108
402 1258 1443 1481 1490 1581 1527 1512 1524 1255 1143 938 1008 1178 1009 845 782 636 508 283 276 423 547 703 879 804 1134 1231 1677 1252 1331 1705 1533 1204 901 435 227 141
336 758 1391 1513 1643 1816 1662 1723 1847 1785 1513 1411 1435 1229 988 978 952 773 636 501 359 475 698 1088 1247 1186 1318 1182 1256 1494 647 955 1113 1030 727 337 9 0
607 912 881 1424 1538 1684 1884 1979 1958 1992 1925 2120 1995 1851 1637 1451 1269 1061 847 620 577 838 1049 1071 1223 1584 1859 1585 1263 1364 1470 146 166 593 677 271 127 47
117 947 1231 1160 1426 1655 1829 1838 2060 2134 1932 1654 1626 1685 1851 1606 1355 1325 1214 1107 1326 1114 942 1027 1634 1572 1318 1316 1509 1433 1333 651 0 0 0 48 116 55
319 752 1401 1561 1595 1739 1641 1863 1841 2020 2068 1991 2020 1934 2017 1950 2108 2014 1835 1648 1450 1716 1895 1649 1897 1641 1743 1650 1397 1111 979 511 24 0 0 0 0 0

GFSNE_con_mlcape_078.txt.gz
CAPE
1683 519 791 1092 1112 598 952 1035 1118 1464 1652 1420 1024 1584 1997 2449 1977 2524 2468 2568 1912 1662 2008 1277 987 1344 1816 1751 1141 609 94 0 0 0 0 0 0 0
546 1189 378 171 1359 1499 769 1003 1023 1148 1238 1321 1723 2316 2485 2605 2563 2987 2823 2432 2602 1768 1801 1232 925 1373 1719 1456 618 24 0 0 0 0 0 0 0 0
1429 1420 1064 1499 879 1913 1800 1604 935 1240 1518 1538 1771 2744 2318 2266 2491 2868 2873 2662 2470 1585 1599 1193 887 1427 1609 1141 131 0 0 0 0 0 0 0 0 0
876 881 1279 1659 1324 1440 1295 1328 1373 1296 1316 1511 1522 1198 1035 1492 2903 2408 2727 2363 2132 1828 1510 1071 843 1317 1447 791 17 0 0 0 0 0 0 0 0 0
1667 1476 1190 1561 1418 1290 1544 1856 1624 1908 1598 1415 1348 1843 1901 1540 1736 1994 2408 2213 2531 1470 984 809 774 1148 1270 469 5 0 0 0 0 0 0 0 0 0
1609 1681 1856 1659 1621 1408 1569 1546 1555 1738 1394 1446 1266 1004 1097 1322 1837 1724 1909 1402 920 1527 1005 1134 878 868 929 312 8 0 0 0 0 0 0 0 0 0
1445 1773 1922 2172 1833 1842 1807 1842 1840 1549 1672 1416 1204 1286 1248 2007 2025 1842 1536 1833 1476 871 595 1743 1086 631 337 74 0 0 0 0 0 0 0 0 0 0
1285 1469 2119 1759 1867 1179 1145 1275 1447 1573 1571 1737 2038 1974 1511 1888 1738 1564 1380 1040 577 1636 1506 978 1068 765 790 124 106 0 0 0 0 0 0 0 0 0
1714 1495 1702 1482 1924 1588 1015 904 698 448 742 918 951 1089 574 323 711 692 1002 1071 1301 1007 1027 927 995 1207 1280 732 266 26 0 0 0 0 0 0 0 0
1461 1940 1845 1580 1558 1910 2259 2062 1527 1202 849 377 171 98 154 229 590 763 831 1497 1977 2039 2009 1677 1409 1188 1289 562 387 91 0 0 0 0 0 0 0 0
1332 1320 1238 1954 1970 1408 1188 1427 2238 2415 2214 1732 1522 1064 701 504 636 1143 964 713 541 372 386 184 129 207 263 262 7 0 0 0 0 0 0 0 0 0
772 860 1090 1227 865 1296 1921 1695 1233 1058 1970 2298 1390 846 836 903 864 897 1078 906 858 807 642 169 190 191 114 493 122 3 0 0 0 0 0 0 0 0
1287 1106 993 802 608 515 381 1036 1672 1698 1528 1539 1591 1460 1230 1168 1178 956 850 929 826 850 853 438 117 462 667 751 657 49 0 17 0 0 0 0 0 0
1571 1403 1344 977 624 546 323 183 227 623 1185 1271 1273 1207 1019 781 601 255 826 1150 1207 1004 1086 936 785 550 543 636 524 669 163 198 0 3 0 0 0 0
1626 1626 1414 803 461 181 58 9 1 31 242 489 612 754 834 793 458 61 3 121 1063 1654 1716 1548 1247 1383 1513 1319 1108 753 773 720 291 323 179 10 0 0
180 941 1189 1107 953 661 512 282 26 112 112 225 327 461 642 756 693 400 21 0 0 512 1715 1912 2013 1608 1303 1583 1419 1250 1323 1110 1250 1038 918 173 14 0
121 715 994 1049 1022 960 871 841 924 619 461 470 502 625 760 832 753 510 127 0 0 53 45 454 1466 1934 1946 1755 1283 1472 1588 1817 1684 1488 1121 761 335 110
5 675 995 1295 1515 1539 1233 1000 958 1122 1290 985 874 843 792 741 740 621 384 110 82 103 67 27 289 1110 1287 1841 1550 1159 1518 1239 1471 1389 1374 864 493 190
0 1 614 1197 1467 1335 1468 1645 1588 1475 1510 1488 1475 1454 1155 974 791 600 414 387 699 618 332 139 396 713 737 785 953 1687 1132 1318 1260 1272 1255 867 538 327
0 0 5 510 839 1273 1474 1293 1813 1970 2042 1817 1665 1309 1122 1234 1353 1229 1013 899 746 572 391 285 521 493 342 357 437 910 1361 1307 1140 886 750 608 0 0
0 68 165 379 711 981 1437 1672 1436 1299 2035 2008 1806 1559 1553 1390 1138 951 859 901 892 850 711 620 531 318 425 1359 1084 1202 1246 644 781 966 880 613 109 0
0 0 0 14 903 1092 1184 1603 1662 1607 1380 1416 2072 1725 1794 1568 1372 1253 1205 990 935 916 908 879 906 702 604 1017 1014 1159 1107 688 40 17 38 154 267 224
105 237 556 548 936 1324 1539 1587 1537 1586 1589 1383 1443 1952 1861 1556 1299 1446 1271 1299 1107 1176 1073 943 888 811 751 702 748 901 1192 1429 656 251 6 0 0 0

GFSNE_con_mlcape_081.txt.gz
CAPE
330 1259 314 256 321 1216 1301 1044 844 1088 1135 1167 1007 1378 2070 2018 1863 2236 2344 2462 2036 2174 1999 1669 964 1167 1623 1345 656 95 0 0 0 0 0 0 0 0
544 470 883 571 24 562 1493 1407 1116 878 963 1230 2001 2271 2316 2044 1900 2177 2317 2130 2128 2258 1930 1435 946 1011 1493 1111 233 0 0 0 0 0 0 0 0 0
623 1342 980 1303 995 701 690 1151 1237 1430 1187 1350 1552 1697 1186 924 1364 2152 2358 2066 2148 2002 1553 1408 961 801 1357 936 124 0 0 0 0 0 0 0 0 0
586 774 709 1220 1470 1470 1215 860 1234 1313 1522 904 849 852 1150 1598 1616 1855 2560 2023 2229 2052 1990 1537 952 683 1131 770 122 0 0 0 0 0 0 0 0 0
814 942 583 821 675 972 918 749 1046 1251 1412 1533 1364 1643 1663 1065 795 1010 1378 1944 1325 1713 840 875 783 567 811 729 127 0 0 0 0 0 0 0 0 0
1069 1432 1385 1022 961 1082 833 748 954 902 922 1107 1014 865 746 984 1790 2210 1792 1469 1420 1154 588 838 643 513 556 539 157 5 0 0 0 0 0 0 0 0
1062 1253 1306 1694 1643 1464 1261 1103 1065 1117 1164 1133 1506 1806 1920 1891 1683 1577 1120 1100 900 552 485 944 885 539 358 184 51 8 0 0 0 0 0 0 0 0
892 762 1157 1227 1515 1897 1584 1502 1431 1195 1350 1292 1183 1309 1439 1452 1345 242 97 0 1 739 601 291 770 913 647 139 52 26 0 0 0 0 0 0 0 0
1214 1144 1258 1214 1080 1422 1266 1245 1078 966 921 724 527 584 643 319 73 0 0 52 252 431 1188 764 977 991 1077 735 278 83 33 0 0 0 0 0 0 0
1870 1800 1645 1378 1178 1171 1476 1524 1266 1005 806 650 492 196 55 107 128 124 203 394 716 1092 1359 485 574 276 284 397 302 113 22 0 0 0 0 0 0 0
817 1091 1527 1449 1430 1355 1315 1419 1663 1662 1689 1488 1279 1062 980 722 540 668 615 688 601 378 420 409 284 154 37 226 94 28 27 0 0 0 0 0 0 0
982 881 740 924 1116 1292 1321 1366 1396 1256 1379 1695 1556 1458 1183 1084 763 497 636 579 581 382 339 440 231 162 65 119 79 0 0 0 0 0 0 0 0 0
1164 1200 1007 824 579 461 463 748 682 715 1248 1403 1350 1228 1125 1089 957 714 535 561 471 376 344 478 306 243 351 275 257 3 0 0 0 0 0 0 0 0
1316 1316 1383 1128 883 650 415 393 370 341 538 752 952 1096 1146 1074 1071 980 912 675 574 444 303 317 440 459 406 399 372 260 56 0 0 0 0 0 0 0
441 831 812 734 905 874 484 357 141 122 211 285 365 434 569 708 781 655 449 234 390 463 430 448 575 730 775 687 563 578 756 423 13 0 0 0 0 0
0 7 288 369 532 837 832 647 335 182 198 274 285 215 199 244 322 430 433 424 261 160 300 543 504 577 645 690 790 782 868 578 371 165 166 114 2 0
0 0 0 220 610 801 935 982 944 524 406 317 213 200 171 164 204 253 348 386 300 214 15 0 264 548 891 856 917 1074 948 977 892 665 462 495 290 93
0 0 0 0 393 996 1038 1060 981 933 695 485 354 350 354 340 380 455 514 487 414 256 53 0 0 97 501 1056 1274 822 683 803 837 768 744 703 660 469
0 0 0 0 0 446 1126 1357 1401 1261 1070 846 764 673 591 577 565 597 570 476 406 326 168 75 46 30 84 125 260 957 759 759 788 760 669 669 729 562
0 0 0 0 0 0 28 288 1031 1021 1092 1134 1045 867 858 833 807 801 692 573 513 481 354 212 220 205 288 306 236 253 397 625 713 850 750 395 50 0
0 0 0 0 0 0 29 273 596 975 1109 1032 941 905 910 897 983 957 900 763 730 744 724 595 484 249 222 244 318 428 683 376 854 851 647 387 155 91
0 0 0 0 0 0 16 247 539 749 838 967 999 914 871 752 789 738 761 725 636 607 630 598 499 629 677 615 573 376 261 291 113 50 37 246 223 155
0 0 0 4 105 333 421 507 773 838 989 989 903 942 834 836 774 716 639 593 570 599 622 741 618 556 659 671 622 572 566 544 336 221 44 0 0 0

GFSNE_con_mlcape_084.txt.gz
CAPE
391 480 808 279 56 774 1270 1183 743 833 993 1417 1392 1325 1843 1831 1800 1700 1947 2150 2082 1946 2038 1830 1288 880 1504 1102 362 42 0 0 0 0 0 0 0 0
173 331 423 773 560 528 674 1013 1177 882 856 1348 1997 2190 1847 1272 945 1531 1827 1948 2027 1948 1878 1484 1068 769 1228 1066 287 13 0 0 0 0 0 0 0 0
213 624 750 1067 1073 1174 893 685 928 1037 959 981 1129 957 953 1153 1403 1218 1173 1647 2292 2042 1800 1799 1055 744 808 1035 346 29 0 0 0 0 0 0 0 0
467 270 524 744 991 1312 1032 794 952 1311 1243 1207 1139 1197 1342 1191 836 1073 1515 1731 1670 1437 608 762 926 775 627 805 532 52 0 0 0 0 0 0 0 0
1001 592 710 561 435 485 437 595 590 850 1040 984 994 1069 848 639 1101 1609 1505 1435 1271 1041 594 625 597 622 553 488 536 128 0 0 0 0 0 0 0 0
910 831 807 886 813 644 688 827 711 625 698 616 527 654 795 1149 1631 1524 1150 646 490 178 253 539 625 271 313 345 296 149 1 0 0 0 0 0 0 0
880 1005 1013 1195 1326 1175 1212 1195 1004 943 734 613 756 830 636 905 1393 1504 1132 488 0 4 50 189 224 419 435 332 170 83 17 0 0 0 0 0 0 0
831 821 836 1057 1058 1101 1416 1508 1589 1083 997 948 592 461 728 937 1039 978 399 0 0 69 301 165 522 75 91 303 217 160 76 0 0 0 0 0 0 0
1130 1020 921 820 738 873 999 1235 1267 1153 1339 1229 960 720 386 103 17 0 0 15 51 114 343 287 484 129 263 286 76 38 49 32 0 0 0 0 0 0
1180 1261 1209 1154 1093 1119 1000 869 852 980 977 893 913 816 667 641 393 317 223 298 427 431 605 279 223 50 171 192 84 16 26 13 0 0 0 0 0 0
724 853 1061 1207 1497 1416 1261 1217 1118 1096 1268 1081 892 873 897 918 757 549 638 463 354 253 345 346 2 56 126 53 2 3 1 0 0 0 0 0 0 0
899 835 790 866 885 761 792 952 1004 967 1077 1127 1156 841 731 718 615 553 910 943 634 483 316 179 1 92 89 59 57 1 0 0 0 0 0 0 0 0
770 837 903 761 639 636 671 907 887 830 772 703 769 891 936 986 1005 741 556 699 596 460 463 290 175 102 144 144 160 95 0 0 0 0 0 0 0 0
762 1011 1181 946 453 330 258 396 489 359 353 414 446 565 675 772 825 793 651 570 594 594 640 350 359 281 185 152 167 154 42 0 0 0 0 0 0 0
9 10 1 19 49 292 577 512 347 279 368 342 307 345 398 457 539 660 710 785 722 646 560 482 350 292 146 185 104 31 61 177 3 6 0 0 0 0
0 0 0 0 0 0 0 205 249 333 546 670 720 571 321 209 255 295 337 374 291 318 195 253 296 292 279 233 227 130 82 217 257 106 17 0 0 0
0 0 0 0 0 0 0 0 336 443 359 495 525 589 494 309 190 118 156 194 227 292 293 190 58 87 142 123 101 182 114 157 285 485 172 242 67 0
0 0 0 0 0 0 0 0 110 542 784 670 513 510 526 411 247 138 98 122 190 286 348 343 126 7 104 273 493 215 297 368 475 426 310 417 365 234
0 0 0 0 0 0 0 0 0 163 807 647 586 501 477 437 388 299 300 285 350 407 433 345 97 0 32 97 78 452 474 378 337 389 457 472 538 442
0 0 0 0 0 0 0 0 0 0 170 585 619 666 689 620 583 553 489 415 442 446 426 278 162 140 116 156 118 153 131 502 491 485 444 285 145 20
0 0 0 0 0 0 0 0 0 0 0 87 478 748 758 718 726 656 531 396 69 163 167 325 318 162 114 104 229 333 317 85 250 491 440 384 385 244
0 0 0 0 0 0 0 0 0 0 32 56 258 600 582 618 669 666 525 340 130 31 52 405 287 190 137 229 315 289 267 212 16 9 24 178 343 470
0 0 0 0 0 0 0 0 0 28 134 171 370 289 417 464 566 543 421 432 357 393 318 151 234 181 250 277 290 291 259 270 215 101 5 2 2 0

GFSNE_con_mlcape_087.txt.gz
CAPE
554 446 481 626 339 350 859 1072 640 752 901 1496 1734 1450 1772 1597 1493 1297 1433 1657 1729 1951 1907 1793 1398 1073 818 1302 744 86 0 0 0 0 0 0 0 0
333 212 270 653 765 925 546 827 889 811 787 1147 1629 1681 1198 948 1171 1101 926 1028 1226 1894 1554 1589 1380 1022 746 954 904 180 3 0 0 0 0 0 0 0
419 402 617 786 1021 1152 1098 706 897 1044 876 826 1032 1082 1191 1146 912 1106 1407 1526 1692 1415 491 823 783 850 769 667 792 346 28 0 0 0 0 0 0 0
467 444 99 481 645 1044 1170 801 640 739 855 845 903 928 956 771 755 1198 1373 1063 1029 925 503 475 502 577 670 591 492 485 76 0 0 0 0 0 0 0
418 464 788 515 424 354 461 379 434 555 645 605 475 643 600 504 899 1253 1264 1090 781 145 0 225 605 381 204 303 296 261 193 5 0 0 0 0 0 0
765 709 599 638 653 634 587 574 702 729 646 578 511 410 527 820 1071 1070 1016 1033 844 36 0 126 264 168 235 308 246 159 120 51 0 0 0 0 0 0
813 792 785 812 834 1033 1134 988 991 1052 966 765 740 698 463 434 553 801 825 586 41 0 0 105 79 157 137 146 103 203 130 85 30 0 0 0 0 0
911 844 848 718 731 749 891 887 1112 1146 1224 1151 1042 916 823 669 497 264 162 1 0 0 153 97 141 104 108 126 120 147 41 19 17 3 0 0 0 0
995 961 925 1000 920 832 681 554 571 614 837 1195 943 926 994 952 744 534 418 315 154 143 245 200 262 106 141 79 177 136 21 11 7 11 0 0 0 0
905 1006 1057 1002 890 980 1026 1027 964 869 688 483 630 911 992 930 673 590 506 397 299 345 371 318 244 107 67 8 45 2 0 0 0 0 0 0 0 0
744 720 897 908 894 847 762 681 749 1051 1135 942 807 766 757 720 590 455 640 581 608 543 453 520 419 154 2 0 0 1 0 0 0 0 0 0 0 0
646 663 604 624 686 635 678 798 814 698 650 662 656 499 428 418 316 207 583 638 742 675 647 446 211 119 144 30 4 26 17 0 0 0 0 0 0 0
442 501 601 614 433 342 125 439 727 660 797 763 766 720 676 670 617 312 266 448 562 580 636 406 307 115 147 253 178 115 25 2 0 0 0 0 0 0
0 62 111 1 0 21 60 319 315 89 170 320 380 513 507 499 558 588 560 428 473 586 650 413 420 336 244 240 235 136 50 6 0 0 0 0 0 0
0 0 0 0 0 0 0 0 0 0 92 321 507 472 484 463 389 418 391 504 439 400 403 453 363 412 246 295 248 207 153 101 0 0 0 0 0 0
0 0 0 0 0 0 0 0 0 0 0 0 34 268 363 387 412 378 366 337 200 335 326 348 300 227 247 235 192 205 141 114 54 0 0 0 0 0
0 0 0 0 0 0 0 0 0 0 0 0 0 18 304 412 428 351 237 222 156 271 295 152 43 49 89 120 142 109 116 102 24 0 0 2 10 0
0 0 0 0 0 0 0 0 0 0 0 7 17 23 32 277 397 404 253 178 130 177 160 144 47 10 9 51 19 72 36 35 4 0 0 36 81 130
0 0 0 0 0 0 0 0 0 0 0 0 0 49 227 338 302 216 195 168 123 131 172 149 141 140 225 270 128 0 42 98 91 89 140 107 220 216
0 0 0 0 0 0 0 0 0 0 0 0 0 0 48 207 360 485 450 382 349 347 318 305 264 193 123 120 67 61 0 119 169 210 218 240 225 29
0 0 0 0 0 0 2 2 1 0 0 0 0 0 11 70 128 471 561 494 475 487 444 447 332 116 45 14 12 139 159 6 44 222 311 288 256 209
1 0 0 0 0 2 0 1 1 0 2 5 12 12 87 204 272 182 430 437 501 435 380 373 263 135 74 30 64 162 166 141 2 0 12 101 248 267
2 4 3 2 0 0 0 0 0 0 0 0 1 0 0 82 120 66 127 99 287 399 212 159 241 174 210 124 52 18 151 187 139 79 47 0 0 0

GFSNE_con_mlcape_093.txt.gz
CAPE
1202 1164 882 1011 1603 1349 1488 1842 1483 1369 1500 2160 2423 2521 2092 2152 1690 1917 2342 1767 1410 1102 493 500 642 784 903 781 736 599 107 0 0 0 0 0 0 0
1047 794 906 882 1176 1672 1768 1518 1475 1425 1256 1525 1858 1984 2158 1903 1431 1800 2152 1650 921 535 93 0 94 359 489 653 605 571 297 37 0 0 0 0 0 0
923 877 857 1124 1056 1387 1863 1648 1556 1438 1224 1298 1578 1648 1516 1819 1231 1218 1175 1949 1415 1210 897 74 0 161 141 143 239 344 316 157 8 0 0 0 0 0
1038 838 719 842 1082 1278 1292 1779 1592 1696 1101 929 959 847 1242 1433 1415 1491 1379 1045 1424 1242 950 91 0 108 49 87 93 117 181 154 77 2 0 0 0 0
786 1053 1056 1141 993 737 904 805 701 1115 1125 1107 967 1206 1396 1366 1524 1324 1516 1462 776 364 247 10 6 105 111 75 64 29 30 53 98 24 0 0 0 0
602 572 722 1044 980 1185 1273 1309 1044 998 1093 1389 1196 1226 1334 1533 1843 1428 1233 1325 1447 1305 621 67 230 315 223 110 89 128 27 2 12 12 0 0 0 0
843 752 1082 870 849 887 960 973 795 644 972 912 850 917 945 924 881 1057 1558 1592 1343 1257 753 594 282 390 263 199 366 281 47 36 5 0 0 0 0 0
1215 1031 937 664 771 529 527 520 701 789 735 682 767 912 1452 1309 1164 1184 1137 1184 823 633 992 357 209 330 341 198 168 93 3 0 0 0 0 0 0 0
1223 1243 977 1013 1126 1132 760 582 461 411 458 911 1086 1321 1217 1498 1343 1451 1332 1363 1110 740 679 453 286 323 477 273 442 215 7 0 0 0 0 0 0 0
1083 1216 1301 1179 1184 1125 1036 1283 1145 1178 1089 855 826 1176 1429 1515 1697 1573 1516 1304 1069 847 996 863 454 461 643 691 611 261 1 0 0 0 0 0 0 0
405 644 673 833 92 39 594 1168 1372 1404 1183 846 648 578 514 417 404 761 1019 953 733 646 875 974 770 683 890 791 820 345 24 0 0 0 0 0 0 0
39 14 0 0 0 0 0 490 965 1297 1258 1363 1352 1219 897 1243 715 461 968 1060 952 869 902 920 752 772 804 625 773 800 765 308 148 6 0 0 0 0
0 0 0 0 0 0 0 0 0 0 0 0 83 682 969 1107 1155 1248 1219 1105 1000 1078 1060 1199 1107 955 937 923 817 851 845 838 840 657 64 0 0 0
0 0 0 0 0 0 0 0 0 0 0 0 0 0 0 0 10 28 381 1017 1132 1050 1126 1218 1160 1056 1065 980 868 771 857 911 939 805 668 418 0 0
0 0 0 0 0 0 0 0 0 0 0 0 0 0 0 0 0 0 19 317 916 1098 1165 1230 1240 1168 1156 1140 1082 1055 949 906 869 832 774 641 544 397
0 0 0 0 0 0 0 0 0 0 0 0 0 0 0 0 0 0 0 0 0 141 691 1162 1262 1246 1226 1162 988 977 951 976 924 936 911 848 668 462
0 0 0 0 0 0 0 0 0 0 0 0 0 0 0 0 0 0 0 0 0 24 36 57 608 1234 1111 1012 844 742 914 1002 947 871 1020 981 638 528
0 0 0 0 0 0 0 0 0 0 0 0 0 0 0 0 0 0 0 0 5 33 62 130 341 495 387 625 591 612 743 905 912 1017 1081 972 690 547
0 0 0 0 0 0 0 0 0 0 0 0 0 0 1 0 0 0 0 0 0 4 12 17 69 109 127 305 501 183 632 761 894 964 811 761 857 807
0 0 0 0 0 0 0 0 0 0 0 0 1 0 0 0 0 1 10 17 22 19 7 15 77 136 321 72 93 510 119 590 814 710 582 447 792 772
0 0 0 0 0 0 0 0 0 0 0 0 0 0 0 0 0 0 0 3 0 3 6 3 31 198 134 293 164 162 487 165 326 486 542 599 705 828
0 0 0 0 0 0 0 0 0 0 0 0 0 0 0 0 1 8 12 3 13 16 17 29 19 99 28 103 11 48 344 564 417 51 0 26 446 671
0 0 0 0 0 0 0 0 0 0 0 0 0 0 4 3 0 1 1 2 11 16 13 5 5 34 12 41 37 22 146 422 326 309 190 0 0 0

GFSNE_con_mlcape_096.txt.gz
CAPE
1354 1499 1223 973 1163 1359 1722 1851 1677 1200 1292 2410 1808 2514 2159 2070 1902 1604 1816 1553 1453 680 156 32 0 171 566 773 766 692 234 24 0 0 0 0 0 0
1025 1131 1181 592 931 1017 1132 1148 1411 1475 1082 1613 1554 1867 2073 1694 1370 1359 1346 962 1110 861 1119 1093 173 31 268 283 408 488 442 147 10 0 0 0 0 0
1279 1252 1201 1101 698 645 888 1027 807 841 946 872 1396 1437 2054 1787 1678 1681 1182 988 559 1071 873 798 118 0 99 96 129 168 263 259 108 1 0 0 0 0
746 938 1038 586 868 825 723 795 905 1020 794 597 722 831 1340 1442 1409 1810 1265 709 608 460 348 245 18 0 45 55 66 55 62 74 154 59 0 0 0 0
822 763 927 822 925 428 388 395 280 376 554 537 510 523 762 1227 1286 1306 857 1011 971 497 414 183 9 55 160 91 48 29 34 14 2 64 14 0 0 0
881 784 682 780 991 1123 1296 1047 1078 1138 728 561 391 248 336 576 910 579 321 393 718 666 659 370 222 278 268 181 74 132 160 6 1 0 4 0 0 0
897 1021 932 811 812 814 911 951 1173 1006 462 147 263 207 281 520 652 427 446 430 431 600 450 620 186 15 18 21 24 121 93 0 0 0 0 0 0 0
1292 1515 1319 1056 778 549 577 542 705 1033 1183 933 546 433 738 1030 952 859 711 486 515 419 460 279 150 128 46 83 139 164 114 73 0 0 0 0 0 0
1429 1353 1232 544 810 906 783 575 423 442 492 889 992 1098 1113 1234 1381 1575 1053 1031 904 602 511 399 470 395 151 143 369 355 351 51 0 0 0 0 0 0
1311 1354 1452 1361 17 338 1147 985 1042 1251 1199 1153 1009 1333 1641 1505 1485 1573 1394 1451 1464 1038 758 518 431 442 449 402 524 519 373 31 0 0 0 0 0 0
523 74 106 20 0 0 565 1193 1195 1216 1300 887 848 779 759 680 572 786 863 835 744 627 656 436 353 369 392 434 452 522 456 214 0 0 0 0 0 0
250 2 0 0 0 0 0 90 409 761 448 317 488 579 757 1200 955 1031 1335 1184 1060 882 782 1043 1037 928 779 598 448 448 576 310 290 135 88 55 0 0
0 0 0 0 0 0 0 0 0 0 0 0 6 135 340 627 823 1067 1388 1390 1344 1258 1152 1219 1143 1225 1138 1049 908 678 516 554 664 635 261 190 1 9
0 0 0 0 0 0 0 0 0 0 0 0 0 0 0 0 0 0 0 20 45 218 703 1444 1488 1476 1396 1185 1099 907 914 812 820 871 895 903 138 0
0 0 0 0 0 0 0 0 0 0 0 0 0 0 0 0 0 0 0 81 313 472 413 1059 1534 1481 1476 1468 1435 1369 1142 1075 1076 964 1155 1129 1108 1005
0 0 0 0 0 0 0 0 0 0 0 0 0 0 0 0 0 0 0 0 0 0 19 155 417 824 952 1243 1209 1271 1197 1213 1066 1147 1169 1204 1316 1209
0 0 0 0 0 0 0 0 0 0 0 0 0 0 0 0 0 0 0 0 0 0 0 0 8 47 182 908 849 672 884 877 1087 1059 1183 1079 1338 1349
0 0 0 0 0 0 0 0 0 0 0 0 0 0 0 0 0 0 0 0 0 0 0 0 3 15 9 0 18 139 323 463 645 902 965 1022 1112 1400
0 0 0 0 0 0 0 0 0 0 0 0 0 0 0 0 0 0 0 0 0 0 0 0 0 12 142 42 0 3 0 0 268 870 1015 892 899 981
0 0 0 0 0 0 0 0 0 0 0 0 0 0 0 0 0 0 0 0 0 0 0 0 0 0 6 17 31 59 22 133 47 58 235 592 829 804
0 0 0 0 0 0 0 0 0 0 0 0 0 0 0 0 0 0 0 0 0 0 0 0 0 1 1 27 27 1 9 92 109 116 277 459 584 710
0 0 0 0 0 0 0 0 0 0 0 0 0 0 0 0 0 0 0 0 0 0 0 0 0 0 0 0 6 24 18 71 89 6 62 202 582 336
0 0 0 0 0 0 0 0 0 0 0 0 0 0 0 0 0 0 0 0 0 0 1 0 0 0 0 0 0 5 19 12 8 31 89 159 171 74

GFSNE_con_mlcape_099.txt.gz
CAPE
1648 1587 1333 1008 687 1167 1215 984 1070 959 627 351 1661 30 613 1700 1632 1635 1433 1342 763 996 422 948 828 348 111 436 572 735 668 372 103 1 0 0 0 0
1134 1149 1353 873 840 600 772 794 790 850 736 1122 1562 2067 2185 2068 1547 1906 1809 1255 1046 848 664 802 455 89 20 79 179 227 356 404 256 58 0 0 0 0
1306 1500 1160 1343 933 660 840 711 599 642 715 786 1001 1531 1667 1532 1796 1974 1923 1743 773 491 720 575 213 16 0 34 84 126 129 159 175 133 17 0 0 0
910 852 923 793 1032 1107 507 543 425 625 693 492 441 319 421 1098 1533 1890 1546 1092 751 640 577 302 212 0 0 26 53 37 45 42 65 57 53 0 0 0
896 843 820 735 751 584 826 697 426 385 518 541 370 250 224 258 474 1367 1421 902 1096 455 356 288 149 41 67 63 66 31 12 31 7 0 0 11 0 0
910 939 847 816 948 909 797 1136 847 626 573 583 362 318 314 201 217 518 518 286 349 529 451 433 379 284 118 70 87 50 26 102 0 0 0 0 0 0
1228 1118 1083 937 761 889 929 963 1187 1135 945 760 300 114 173 1024 915 506 819 531 571 486 463 398 279 176 177 10 54 95 43 81 2 0 0 0 0 0
1186 1259 1318 1198 918 632 290 247 498 955 1149 1096 700 685 899 1104 1034 1124 1342 677 605 588 530 655 466 436 395 404 49 149 158 163 136 10 0 0 0 0
1368 1193 1417 699 821 1248 878 544 563 400 371 796 1062 1194 1310 1544 1564 1647 1400 1280 1170 1107 992 1249 885 750 460 399 246 329 315 321 218 0 0 0 0 0
1144 1308 1457 983 0 59 547 847 1137 1195 998 879 1207 1536 1635 1524 1807 1665 1636 1345 1408 1445 1447 1234 1049 726 546 474 310 286 385 402 243 6 0 0 0 0
265 92 417 98 0 0 117 800 1166 1170 1007 742 765 667 738 800 783 917 834 601 664 790 1131 1098 1212 1121 1152 1276 1061 705 305 369 336 244 76 6 0 0
520 0 0 0 0 0 0 10 319 586 448 208 29 204 377 754 641 718 1106 891 1131 1240 949 1271 1164 1230 1004 1022 1052 1120 1184 602 284 228 199 144 66 26
0 0 0 0 0 0 0 0 0 0 0 0 0 31 110 128 173 629 902 770 944 908 606 97 254 588 625 941 1197 1255 1209 1137 1253 777 207 92 16 56
0 0 0 0 0 0 0 0 0 0 0 0 14 34 49 78 90 91 36 0 0 0 20 316 585 734 989 1046 1137 1259 1492 1537 1661 1476 1539 1454 271 15
0 0 0 0 0 0 0 0 0 0 0 0 0 0 0 0 0 0 0 8 37 344 242 956 826 510 606 638 679 859 824 1027 1359 1542 1466 1595 1568 649
0 0 0 0 0 0 0 0 0 0 0 0 0 0 0 0 0 0 0 0 0 0 0 0 30 69 35 159 248 484 800 854 895 1039 1102 1273 1388 1387
0 0 0 0 0 0 0 0 0 0 0 0 0 0 0 0 0 0 0 0 0 0 0 0 0 4 5 4 4 32 49 154 388 588 960 694 1003 1006
0 0 0 0 0 0 0 0 0 0 0 0 0 0 0 0 0 0 0 0 0 0 0 0 0 0 0 0 53 140 51 24 47 12 31 273 831 1116
0 0 0 0 0 0 0 0 0 0 0 0 0 0 0 0 0 0 0 0 0 0 0 0 0 0 0 0 0 0 0 17 20 84 232 442 212 487
0 0 0 0 0 0 0 0 0 0 0 0 0 0 0 0 0 0 0 0 0 0 0 0 0 0 0 0 0 0 0 0 0 0 30 236 546 249
0 0 0 0 0 0 0 0 0 0 0 0 0 0 0 0 0 0 0 0 0 0 0 0 0 0 0 0 0 0 0 0 0 0 23 26 71 173
0 0 0 0 0 0 0 0 0 0 0 0 0 0 0 0 0 0 0 0 0 0 0 0 0 0 0 0 0 0 0 0 0 0 0 0 0 7
0 0 0 0 0 0 0 0 0 0 0 0 0 0 0 0 0 0 0 0 0 0 0 0 0 0 0 0 0 0 0 0 0 0 0 0 0 0

GFSNE_con_mlcape_102.txt.gz
CAPE
898 1699 1104 1070 1089 1138 858 871 932 646 284 32 0 0 0 0 14 1767 2026 1772 1071 1143 733 671 629 476 57 68 186 342 436 555 495 168 2 0 0 0
1119 1151 1179 1159 1081 992 1251 831 1299 803 687 140 51 81 0 310 356 2063 1836 1654 1397 1337 414 480 496 285 7 0 7 100 171 212 287 283 106 0 0 0
862 865 946 1008 566 638 560 426 596 685 638 826 532 708 557 681 1731 2000 1757 1748 1319 510 468 448 441 216 4 0 0 0 8 34 67 115 101 44 0 0
1001 1014 941 467 930 1060 1073 1070 896 910 800 700 740 887 690 498 529 1739 1730 1635 981 914 604 523 438 162 42 7 2 6 0 0 0 3 27 9 4 0
1066 991 887 973 621 664 644 636 674 594 226 250 240 375 372 471 458 648 1085 617 1159 490 335 320 298 160 125 62 40 29 28 7 0 14 0 0 0 0
941 866 988 972 678 734 595 763 693 690 741 1028 1234 1067 628 965 1148 1046 990 1684 951 790 457 628 327 270 135 32 68 11 0 31 10 33 0 0 0 0
1012 964 1136 841 606 535 759 751 514 431 552 551 492 748 938 859 937 1045 1306 821 572 788 642 849 719 527 499 482 290 96 12 36 25 30 19 0 0 0
767 945 1077 771 796 561 376 362 154 133 163 322 258 466 624 731 939 1298 995 1106 1199 1389 1005 646 873 1181 1388 963 634 143 151 111 113 143 41 0 0 0
614 718 687 457 42 57 475 460 362 361 286 402 434 642 919 1127 1446 1253 1307 1448 1055 1057 994 1050 1201 1189 1270 1327 340 227 221 159 152 150 74 0 0 0
1037 1299 1117 12 0 0 22 435 857 736 967 704 547 825 1262 1348 1096 1121 1089 1049 1221 1191 1264 1177 1149 1330 1449 1516 1158 620 421 179 174 189 127 37 7 0
31 0 3 0 0 0 0 19 231 717 130 46 62 29 43 85 200 360 349 524 469 643 917 1137 1004 800 1123 1244 975 849 570 535 509 409 273 138 30 0
0 0 0 0 0 0 0 0 0 0 0 0 0 0 0 58 139 151 438 652 661 563 953 497 24 0 43 177 460 720 1401 1414 920 846 485 152 55 0
0 0 0 0 0 0 0 0 0 0 0 0 0 0 50 122 139 63 155 60 44 59 156 0 0 30 360 596 840 701 576 598 1187 1150 742 823 416 37
0 0 0 0 0 0 0 0 0 0 0 0 0 0 0 0 0 0 0 0 1 0 3 77 85 153 95 157 286 565 404 707 964 783 863 1382 653 264
0 0 0 0 0 0 0 0 0 0 0 0 0 0 0 0 0 0 0 0 0 0 0 0 0 4 35 225 115 108 33 5 25 879 292 791 887 1028
0 0 0 0 0 0 0 0 0 0 0 0 0 0 0 0 0 0 0 0 0 0 0 0 0 0 0 0 0 0 0 0 13 259 113 452 489 911
0 0 0 0 0 0 0 0 0 0 0 0 0 0 0 0 0 0 0 0 0 0 0 0 0 0 0 0 0 0 0 0 0 0 0 20 48 134
0 0 0 0 0 0 0 0 0 0 0 0 0 0 0 0 0 0 0 0 0 0 0 0 0 0 0 0 0 0 0 0 0 0 0 0 0 0
0 0 0 0 0 0 0 0 0 0 0 0 0 0 0 0 0 0 0 0 0 0 0 0 0 0 0 0 0 0 0 0 0 0 0 0 0 0
0 0 0 0 0 0 0 0 0 0 0 0 0 0 0 0 0 0 0 0 0 0 0 0 0 0 0 0 0 0 0 0 0 0 0 0 0 0
0 0 0 0 0 0 0 0 0 0 0 0 0 0 0 0 0 0 0 0 0 0 0 0 0 0 0 0 0 0 0 0 0 0 0 0 0 0
0 0 0 0 0 0 0 0 0 0 0 0 0 0 0 0 0 0 0 0 0 0 0 0 0 0 0 0 0 0 0 0 0 0 0 0 0 0
0 0 0 0 0 0 0 0 0 0 0 0 0 0 0 0 0 0 0 0 0 0 0 0 0 0 0 0 0 0 0 0 0 0 0 0 0 0

GFSNE_con_mlcape_105.txt.gz
CAPE
489 809 1307 1332 1177 879 682 234 662 356 304 57 2 44 35 10 0 0 61 469 1540 1295 1254 800 371 482 409 3 7 66 200 184 196 253 207 2 0 0
11 1229 1052 926 891 391 422 296 480 359 370 260 115 294 181 4 0 193 500 827 1520 1250 1143 478 378 389 365 9 0 0 24 104 120 120 105 78 0 0
685 879 643 614 973 1034 702 1008 730 786 740 703 376 385 399 327 158 345 879 1484 1369 1122 980 675 418 394 364 109 0 0 0 0 3 20 37 33 12 0
672 826 727 680 390 690 655 607 525 524 400 109 287 453 373 411 697 757 836 1756 1781 961 395 369 275 340 370 186 52 0 0 0 0 0 0 2 0 0
709 794 810 789 909 527 320 234 672 568 484 651 739 753 731 869 564 663 1139 1053 634 895 400 418 591 400 270 195 110 42 0 0 0 0 0 0 0 0
861 855 788 699 559 589 580 446 683 411 449 350 365 319 386 683 793 499 345 566 435 909 731 519 295 509 559 584 684 583 106 0 0 0 0 5 0 0
725 777 618 561 418 426 465 529 628 337 58 0 0 9 3 120 115 686 745 701 699 788 534 462 653 885 1074 1164 1243 947 523 15 0 0 0 0 0 0
549 362 463 153 119 121 237 393 230 246 184 284 314 257 337 493 679 844 945 652 604 821 752 752 1002 1054 1155 1329 1338 782 98 88 35 5 38 26 0 0
406 483 327 0 0 0 16 350 410 313 300 405 437 421 519 540 784 739 743 686 595 593 825 987 899 921 871 804 1032 705 414 260 257 86 111 102 44 0
136 174 21 0 0 0 0 68 250 117 41 48 175 113 109 178 69 55 233 416 520 535 497 426 871 189 21 20 120 339 517 514 353 358 224 135 46 0
0 0 0 0 0 0 0 0 0 3 0 0 0 0 0 0 0 4 72 219 340 396 468 183 75 0 0 23 299 249 493 87 40 211 580 211 90 60
0 0 0 0 0 0 0 0 0 0 0 0 0 0 0 0 0 0 0 0 0 0 84 0 0 0 0 143 32 262 164 224 220 321 631 325 343 343
0 0 0 0 0 0 0 0 0 0 0 0 0 0 0 0 0 0 0 0 0 0 0 0 0 0 0 0 49 102 127 187 96 30 31 104 365 155
0 0 0 0 0 0 0 0 0 0 0 0 0 0 0 0 0 0 0 0 0 0 0 0 0 0 0 0 0 0 0 0 0 0 0 71 109 122
0 0 0 0 0 0 0 0 0 0 0 0 0 0 0 0 0 0 0 0 0 0 0 0 0 0 0 0 0 0 0 0 0 0 0 0 0 4
0 0 0 0 0 0 0 0 0 0 0 0 0 0 0 0 0 0 0 0 0 0 0 0 0 0 0 0 0 0 0 0 0 0 0 0 0 0
0 0 0 0 0 0 0 0 0 0 0 0 0 0 0 0 0 0 0 0 0 0 0 0 0 0 0 0 0 0 0 0 0 0 0 0 0 0
0 0 0 0 0 0 0 0 0 0 0 0 0 0 0 0 0 0 0 0 0 0 0 0 0 0 0 0 0 0 0 0 0 0 0 0 0 0
0 0 0 0 0 0 0 0 0 0 0 0 0 0 0 0 0 0 0 0 0 0 0 0 0 0 0 0 0 0 0 0 0 0 0 0 0 0
0 0 0 0 0 0 0 0 0 0 0 0 0 0 0 0 0 0 0 0 0 0 0 0 0 0 0 0 0 0 0 0 0 0 0 0 0 0
0 0 0 0 0 0 0 0 0 0 0 0 0 0 0 0 0 0 0 0 0 0 0 0 0 0 0 0 0 0 0 0 0 0 0 0 0 0
0 0 0 0 0 0 0 0 0 0 0 0 0 0 0 0 0 0 0 0 0 0 0 0 0 0 0 0 0 0 0 0 0 0 0 0 0 0
0 0 0 0 0 0 0 0 0 0 0 0 0 0 0 0 0 0 0 0 0 0 0 0 1 1 1 1 2 1 0 0 0 0 0 0 0 0

GFSNE_con_mlcape_108.txt.gz
CAPE
240 376 834 995 636 450 355 148 450 389 337 276 117 32 80 50 58 8 13 149 406 680 1001 1181 917 471 329 388 24 0 4 58 91 207 222 77 0 0
177 375 741 555 764 699 540 365 519 328 334 295 237 114 300 310 201 81 66 171 397 1100 935 454 418 445 378 324 296 10 0 0 0 2 49 77 27 0
465 397 414 585 440 642 579 674 380 502 370 286 168 250 393 514 593 579 543 766 1486 882 478 424 486 336 250 259 265 215 49 0 0 0 0 1 5 0
396 504 463 714 389 489 463 290 301 437 301 121 230 537 580 628 544 507 1062 1047 736 583 562 624 173 126 256 308 275 364 459 249 3 0 0 0 0 0
588 494 570 574 516 584 341 248 362 432 439 426 456 436 447 503 545 414 476 398 595 719 630 386 554 723 814 716 741 789 602 371 37 0 0 0 0 4
497 595 590 678 555 416 449 436 416 387 183 71 19 0 12 196 324 424 286 675 436 611 576 447 784 838 824 971 1034 881 300 226 97 0 0 0 0 2
330 399 244 183 211 175 217 310 424 325 251 54 47 57 50 229 414 568 462 576 513 552 471 450 718 739 789 301 296 717 454 81 32 0 0 0 0 0
291 255 42 20 37 33 92 194 302 253 166 170 159 142 136 339 415 383 475 261 137 543 478 468 555 690 34 0 0 262 456 455 541 514 190 0 0 0
277 261 55 0 0 0 14 235 217 115 103 186 164 165 200 234 222 113 0 4 81 209 533 369 430 151 7 0 36 80 465 36 18 94 287 381 130 8
81 15 0 0 0 0 0 0 63 0 0 0 0 0 0 0 0 0 0 16 81 137 361 101 0 0 0 0 55 0 89 11 60 121 208 413 55 76
0 0 0 0 0 0 0 0 0 0 0 0 0 0 0 0 0 0 0 0 0 39 2 0 0 0 0 0 5 3 46 18 4 0 0 0 1 31
0 0 0 0 0 0 0 0 0 0 0 0 0 0 0 0 0 0 0 0 0 0 0 0 0 0 0 14 0 0 0 0 0 0 0 0 0 20
0 0 0 0 0 0 0 0 0 0 0 0 0 0 0 0 0 0 0 0 0 0 0 0 0 0 0 0 0 0 0 0 0 0 0 0 0 0
0 0 0 0 0 0 0 0 0 0 0 0 0 0 0 0 0 0 0 0 0 0 0 0 0 0 0 0 0 0 0 0 0 0 0 0 0 0
0 0 0 0 0 0 0 0 0 0 0 0 0 0 0 0 0 0 0 0 0 0 0 0 0 0 0 0 0 0 0 0 0 0 0 0 0 0
0 0 0 0 0 0 0 0 0 0 0 0 0 0 0 0 0 0 0 0 0 0 0 0 0 0 0 0 0 0 0 0 0 0 0 0 0 0
0 0 0 0 0 0 0 0 0 0 0 0 0 0 0 0 0 0 0 0 0 0 0 0 0 0 0 0 0 0 0 0 0 0 0 0 0 0
0 0 0 0 0 0 0 0 0 0 0 0 0 0 0 0 0 0 0 0 0 0 0 0 0 0 0 0 0 0 0 0 0 0 0 0 0 0
0 0 0 0 0 0 0 0 0 0 0 0 0 0 0 0 0 0 0 0 0 0 0 0 0 0 0 0 0 0 0 0 0 0 0 0 0 0
0 0 0 0 0 0 0 0 0 0 0 0 0 0 0 0 0 0 0 0 0 0 0 0 0 0 0 0 0 0 0 0 0 0 0 0 0 0
0 0 0 0 0 0 0 0 0 0 0 0 0 0 0 0 0 0 0 0 0 0 0 0 0 1 0 0 0 0 0 0 0 0 1 1 0 0
0 0 0 0 0 0 0 0 0 0 0 0 0 0 0 0 0 0 0 0 0 1 0 1 0 0 1 0 0 0 0 0 0 0 1 1 1 2
0 0 0 0 0 0 0 0 0 0 0 0 0 0 0 0 0 0 0 1 1 0 0 0 0 0 0 0 0 0 1 0 0 0 0 1 3 6

GFSNE_con_mlcape_111.txt.gz
CAPE
287 163 738 611 299 190 197 61 234 180 202 219 110 11 116 153 224 270 223 171 150 713 491 441 434 437 367 343 430 337 58 0 50 190 219 158 50 0
186 57 511 458 574 490 420 287 283 322 209 236 265 72 112 307 457 622 595 653 960 712 472 326 158 280 307 300 313 337 355 273 41 0 34 57 49 9
235 386 280 419 383 447 391 521 311 290 342 158 75 149 340 510 445 515 685 634 530 592 640 428 298 420 472 484 457 580 704 727 549 86 0 1 2 2
198 204 365 492 532 358 459 345 207 311 273 105 97 287 448 549 487 303 351 484 413 610 484 287 758 895 859 904 921 716 347 230 274 52 0 0 3 1
537 475 459 498 499 495 332 254 229 381 315 315 254 237 110 92 131 218 457 343 530 626 630 481 722 760 345 158 387 312 14 0 3 0 0 0 0 0
488 506 490 516 508 387 300 259 330 303 229 137 87 0 0 79 233 295 167 344 308 385 525 467 499 616 0 0 69 312 187 223 268 116 0 0 0 0
225 331 232 118 103 88 61 80 132 212 205 169 81 87 107 148 271 364 277 201 60 424 340 399 547 289 0 0 36 293 34 23 0 29 147 39 0 0
160 160 78 3 3 14 11 29 99 151 110 100 63 30 39 183 232 143 128 8 30 298 202 349 107 0 0 0 0 0 0 0 7 8 51 113 31 3
223 224 24 0 0 0 6 1 0 0 28 112 67 23 0 0 0 0 0 0 26 45 312 228 0 0 0 0 0 0 0 0 0 0 0 0 0 0
16 14 0 0 0 0 0 13 0 0 0 0 0 0 0 0 0 0 0 0 1 0 0 0 0 0 0 0 0 0 0 0 0 0 0 0 0 0
0 0 0 0 0 0 0 0 0 0 0 0 0 0 0 0 0 0 0 0 0 12 0 0 0 0 0 0 0 0 0 0 0 0 0 0 0 0
0 0 0 0 0 0 0 0 0 0 0 0 0 0 0 0 0 0 0 0 0 0 0 0 0 0 0 0 0 0 0 0 0 0 0 0 0 0
0 0 0 0 0 0 0 0 0 0 0 0 0 0 0 0 0 0 0 0 0 0 0 0 0 0 0 0 0 0 0 0 0 0 0 0 0 0
0 0 0 0 0 0 0 0 0 0 0 0 0 0 0 0 0 0 0 0 0 0 0 0 0 0 0 0 0 0 0 0 0 0 0 0 0 0
0 0 0 0 0 0 0 0 0 0 0 0 0 0 0 0 0 0 0 0 0 0 0 0 0 0 0 0 0 0 0 0 0 0 0 0 0 0
0 0 0 0 0 0 0 0 0 0 0 0 0 0 0 0 0 0 0 0 0 0 0 0 0 0 0 0 0 0 0 0 0 0 0 0 0 0
0 0 0 0 0 0 0 0 0 0 0 0 0 0 0 0 0 0 0 0 0 0 0 0 0 0 0 0 0 0 0 0 0 0 0 0 0 0
0 0 0 0 0 0 0 0 0 0 0 0 0 0 0 0 0 0 0 0 0 0 0 0 0 0 0 0 0 0 0 0 0 0 0 0 0 0
0 0 0 0 0 0 0 0 0 0 0 0 0 0 0 0 0 0 0 0 0 0 0 0 0 0 0 0 0 0 0 0 0 0 0 0 0 0
0 0 0 0 0 0 0 0 0 0 0 0 0 0 0 0 0 0 0 0 0 0 0 0 0 0 0 0 1 0 0 0 0 0 0 0 0 0
0 0 0 0 0 0 0 0 0 0 0 0 0 0 0 0 0 0 0 0 0 0 0 0 0 1 0 0 0 0 0 0 0 0 0 0 0 0
0 0 0 0 0 0 0 0 0 0 0 0 0 0 0 0 0 0 0 0 0 0 0 0 0 1 0 0 1 0 0 0 0 0 2 2 1 0
0 0 0 0 0 0 0 0 0 0 0 0 0 0 0 0 0 0 0 0 0 0 0 0 0 0 0 0 0 0 2 1 2 0 0 2 4 4